| time (UTC) | temp F | wind direction | speed knots | gust knots | rain 1hr in | rain 24hr in | rain mn in | humidity % | barometer mb |
| 20260510154735 | 68 | 37 | 13.0 | 26.1 | 0.00 | 0.00 | 0.00 | 51 | 1013.5 |
| 20260510154629 | 69 | 41 | 12.2 | 24.3 | 0.00 | 0.00 | 0.00 | 51 | 1013.7 |
| 20260510154530 | 69 | 20 | 12.2 | 24.3 | 0.00 | 0.00 | 0.00 | 51 | 1013.7 |
| 20260510154434 | 69 | 11 | 12.2 | 24.3 | 0.00 | 0.00 | 0.00 | 52 | 1013.7 |
| 20260510154325 | 69 | 126 | 13.0 | 24.3 | 0.00 | 0.00 | 0.00 | 51 | 1013.7 |
| 20260510154223 | 69 | 342 | 12.2 | 24.3 | 0.00 | 0.00 | 0.00 | 51 | 1014.2 |
| 20260510154126 | 69 | 28 | 13.0 | 20.9 | 0.00 | 0.00 | 0.00 | 51 | 1014.2 |
| 20260510154024 | 69 | 163 | 13.0 | 25.2 | 0.00 | 0.00 | 0.00 | 51 | 1014.2 |
| 20260510153926 | 69 | 321 | 13.0 | 26.1 | 0.00 | 0.00 | 0.00 | 50 | 1014.2 |
| 20260510153816 | 69 | 41 | 13.0 | 26.1 | 0.00 | 0.00 | 0.00 | 50 | 1014.2 |
| 20260510153718 | 69 | 316 | 13.9 | 26.1 | 0.00 | 0.00 | 0.00 | 50 | 1014.2 |
| 20260510153618 | 69 | 30 | 14.8 | 26.9 | 0.00 | 0.00 | 0.00 | 50 | 1014.2 |
| 20260510153514 | 69 | 46 | 14.8 | 26.9 | 0.00 | 0.00 | 0.00 | 50 | 1014.2 |
| 20260510153423 | 69 | 327 | 15.6 | 26.9 | 0.00 | 0.00 | 0.00 | 50 | 1014.2 |
| 20260510153318 | 69 | 341 | 15.6 | 26.9 | 0.00 | 0.00 | 0.00 | 50 | 1014.2 |
| 20260510153217 | 69 | 313 | 15.6 | 26.9 | 0.00 | 0.00 | 0.00 | 50 | 1014.3 |
| 20260510153120 | 69 | 315 | 16.5 | 26.9 | 0.00 | 0.00 | 0.00 | 50 | 1014.3 |
| 20260510153018 | 69 | 329 | 16.5 | 26.9 | 0.00 | 0.00 | 0.00 | 50 | 1014.3 |
| 20260510152917 | 69 | 16 | 16.5 | 26.9 | 0.00 | 0.00 | 0.00 | 51 | 1014.3 |
| 20260510152816 | 69 | 324 | 15.6 | 26.9 | 0.00 | 0.00 | 0.00 | 50 | 1014.3 |
| 20260510152715 | 69 | 348 | 15.6 | 26.9 | 0.00 | 0.00 | 0.00 | 50 | 1013.7 |
| 20260510152612 | 69 | 317 | 15.6 | 26.9 | 0.00 | 0.00 | 0.00 | 50 | 1013.7 |
| 20260510152512 | 69 | 0 | 15.6 | 25.2 | 0.00 | 0.00 | 0.00 | 50 | 1013.5 |
| 20260510152406 | 69 | 317 | 14.8 | 25.2 | 0.00 | 0.00 | 0.00 | 50 | 1013.5 |
| 20260510152307 | 69 | 305 | 15.6 | 25.2 | 0.00 | 0.00 | 0.00 | 50 | 1013.5 |
| 20260510152204 | 69 | 327 | 15.6 | 26.1 | 0.00 | 0.00 | 0.00 | 50 | 1013.5 |
| 20260510152104 | 69 | 327 | 15.6 | 26.1 | 0.00 | 0.00 | 0.00 | 50 | 1013.5 |
| 20260510152002 | 69 | 36 | 15.6 | 26.1 | 0.00 | 0.00 | 0.00 | 51 | 1013.5 |
| 20260510151901 | 69 | 11 | 15.6 | 26.1 | 0.00 | 0.00 | 0.00 | 51 | 1013.5 |
| 20260510151801 | 69 | 30 | 15.6 | 26.1 | 0.00 | 0.00 | 0.00 | 51 | 1013.4 |
| 20260510151657 | 69 | 11 | 15.6 | 26.1 | 0.00 | 0.00 | 0.00 | 51 | 1013.4 |
| 20260510151557 | 68 | 111 | 15.6 | 26.1 | 0.00 | 0.00 | 0.00 | 51 | 1013.3 |
| 20260510151501 | 68 | 325 | 15.6 | 26.1 | 0.00 | 0.00 | 0.00 | 51 | 1013.3 |
| 20260510151357 | 68 | 317 | 15.6 | 26.1 | 0.00 | 0.00 | 0.00 | 51 | 1013.3 |
| 20260510151254 | 68 | 44 | 15.6 | 26.1 | 0.00 | 0.00 | 0.00 | 51 | 1013.2 |
| 20260510151156 | 68 | 343 | 15.6 | 25.2 | 0.00 | 0.00 | 0.00 | 51 | 1012.7 |
| 20260510151055 | 68 | 277 | 14.8 | 25.2 | 0.00 | 0.00 | 0.00 | 50 | 1012.7 |
| 20260510151001 | 68 | 42 | 13.9 | 25.2 | 0.00 | 0.00 | 0.00 | 50 | 1012.8 |
| 20260510150854 | 68 | 34 | 13.9 | 25.2 | 0.00 | 0.00 | 0.00 | 50 | 1012.8 |
| 20260510150752 | 68 | 69 | 13.9 | 25.2 | 0.00 | 0.00 | 0.00 | 50 | 1012.8 |
| 20260510150639 | 68 | 333 | 13.9 | 25.2 | 0.00 | 0.00 | 0.00 | 50 | 1012.8 |
| 20260510150535 | 68 | 311 | 14.8 | 25.2 | 0.00 | 0.00 | 0.00 | 50 | 1012.8 |
| 20260510150443 | 68 | 315 | 14.8 | 25.2 | 0.00 | 0.00 | 0.00 | 50 | 1012.8 |
| 20260510150337 | 68 | 57 | 15.6 | 29.5 | 0.00 | 0.00 | 0.00 | 50 | 1012.8 |
| 20260510150239 | 68 | 322 | 15.6 | 29.5 | 0.00 | 0.00 | 0.00 | 50 | 1012.7 |
| 20260510150137 | 68 | 9 | 15.6 | 29.5 | 0.00 | 0.00 | 0.00 | 50 | 1012.7 |
| 20260510150038 | 68 | 347 | 15.6 | 29.5 | 0.00 | 0.00 | 0.00 | 50 | 1012.7 |
| 20260510145941 | 68 | 59 | 15.6 | 29.5 | 0.00 | 0.00 | 0.00 | 50 | 1012.6 |
| 20260510145840 | 68 | 42 | 15.6 | 29.5 | 0.00 | 0.00 | 0.00 | 50 | 1012.6 |
| 20260510145735 | 68 | 30 | 14.8 | 29.5 | 0.00 | 0.00 | 0.00 | 50 | 1012.3 |
| 20260510145709 | 68 | 345 | 15.6 | 29.5 | 0.00 | 0.00 | 0.00 | 50 | 1012.3 |
| 20260510145629 | 68 | 345 | 15.6 | 29.5 | 0.00 | 0.00 | 0.00 | 50 | 1012.3 |
| 20260510145520 | 68 | 321 | 14.8 | 29.5 | 0.00 | 0.00 | 0.00 | 50 | 1012.3 |
| 20260510145426 | 68 | 20 | 14.8 | 29.5 | 0.00 | 0.00 | 0.00 | 49 | 1012.3 |
| 20260510145351 | 68 | 202 | 14.8 | 27.8 | 0.00 | 0.00 | 0.00 | 49 | 1012.3 |
| 20260510145217 | 68 | 342 | 14.8 | 27.8 | 0.00 | 0.00 | 0.00 | 49 | 1012.3 |
| 20260510145116 | 68 | 340 | 14.8 | 27.8 | 0.00 | 0.00 | 0.00 | 49 | 1012.3 |
| 20260510145010 | 68 | 29 | 14.8 | 27.8 | 0.00 | 0.00 | 0.00 | 49 | 1012.3 |
| 20260510144911 | 68 | 24 | 14.8 | 27.8 | 0.00 | 0.00 | 0.00 | 48 | 1012.3 |
| 20260510144810 | 68 | 60 | 14.8 | 27.8 | 0.00 | 0.00 | 0.00 | 48 | 1012.3 |
| 20260510144711 | 67 | 300 | 14.8 | 27.8 | 0.00 | 0.00 | 0.00 | 48 | 1012.3 |
| 20260510144609 | 68 | 327 | 14.8 | 27.8 | 0.00 | 0.00 | 0.00 | 48 | 1012.3 |
| 20260510144509 | 68 | 13 | 14.8 | 26.9 | 0.00 | 0.00 | 0.00 | 48 | 1012.3 |
| 20260510144413 | 68 | 344 | 14.8 | 26.9 | 0.00 | 0.00 | 0.00 | 48 | 1012.3 |
| 20260510144313 | 68 | 95 | 15.6 | 26.9 | 0.00 | 0.00 | 0.00 | 48 | 1012.3 |
| 20260510144207 | 68 | 15 | 15.6 | 26.9 | 0.00 | 0.00 | 0.00 | 47 | 1012.1 |
| 20260510144058 | 68 | 305 | 15.6 | 25.2 | 0.00 | 0.00 | 0.00 | 48 | 1012.1 |
| 20260510143955 | 68 | 300 | 15.6 | 25.2 | 0.00 | 0.00 | 0.00 | 48 | 1012.1 |
| 20260510143854 | 68 | 26 | 16.5 | 25.2 | 0.00 | 0.00 | 0.00 | 48 | 1012.1 |
| 20260510143743 | 68 | 331 | 16.5 | 26.1 | 0.00 | 0.00 | 0.00 | 48 | 1012.1 |
| 20260510143638 | 68 | 16 | 16.5 | 26.1 | 0.00 | 0.00 | 0.00 | 48 | 1012.1 |
| 20260510143536 | 68 | 325 | 15.6 | 26.1 | 0.00 | 0.00 | 0.00 | 48 | 1012.1 |
| 20260510143437 | 68 | 332 | 16.5 | 26.1 | 0.00 | 0.00 | 0.00 | 48 | 1012.1 |
| 20260510143339 | 68 | 344 | 15.6 | 26.1 | 0.00 | 0.00 | 0.00 | 48 | 1012.1 |
| 20260510143246 | 68 | 344 | 14.8 | 26.1 | 0.00 | 0.00 | 0.00 | 48 | 1012.1 |
| 20260510143135 | 68 | 336 | 14.8 | 26.1 | 0.00 | 0.00 | 0.00 | 48 | 1012.1 |
| 20260510143036 | 68 | 313 | 14.8 | 26.1 | 0.00 | 0.00 | 0.00 | 48 | 1012.1 |
| 20260510142938 | 68 | 332 | 14.8 | 26.1 | 0.00 | 0.00 | 0.00 | 48 | 1012.1 |
| 20260510142841 | 68 | 18 | 14.8 | 26.1 | 0.00 | 0.00 | 0.00 | 48 | 1012.2 |
| 20260510142748 | 68 | 13 | 13.9 | 24.3 | 0.00 | 0.00 | 0.00 | 48 | 1012.2 |
| 20260510142639 | 68 | 260 | 14.8 | 24.3 | 0.00 | 0.00 | 0.00 | 48 | 1011.9 |
| 20260510142539 | 68 | 46 | 14.8 | 24.3 | 0.00 | 0.00 | 0.00 | 48 | 1011.9 |
| 20260510142500 | 68 | 75 | 14.8 | 24.3 | 0.00 | 0.00 | 0.00 | 48 | 1011.8 |
| 20260510142336 | 68 | 11 | 14.8 | 24.3 | 0.00 | 0.00 | 0.00 | 48 | 1011.8 |
| 20260510142238 | 68 | 327 | 14.8 | 24.3 | 0.00 | 0.00 | 0.00 | 48 | 1011.8 |
| 20260510142134 | 68 | 351 | 14.8 | 24.3 | 0.00 | 0.00 | 0.00 | 48 | 1011.8 |
| 20260510142035 | 68 | 336 | 14.8 | 24.3 | 0.00 | 0.00 | 0.00 | 48 | 1011.8 |
| 20260510141943 | 68 | 317 | 13.9 | 24.3 | 0.00 | 0.00 | 0.00 | 48 | 1011.8 |
| 20260510141832 | 68 | 319 | 13.9 | 24.3 | 0.00 | 0.00 | 0.00 | 48 | 1011.7 |
| 20260510141725 | 68 | 318 | 13.9 | 24.3 | 0.00 | 0.00 | 0.00 | 48 | 1011.7 |
| 20260510141628 | 68 | 16 | 13.9 | 24.3 | 0.00 | 0.00 | 0.00 | 48 | 1011.7 |
| 20260510141520 | 68 | 331 | 13.0 | 24.3 | 0.00 | 0.00 | 0.00 | 48 | 1011.7 |
| 20260510141426 | 68 | 319 | 13.0 | 24.3 | 0.00 | 0.00 | 0.00 | 48 | 1011.8 |
| 20260510141317 | 68 | 355 | 12.2 | 24.3 | 0.00 | 0.00 | 0.00 | 48 | 1011.8 |
| 20260510141220 | 68 | 325 | 13.0 | 24.3 | 0.00 | 0.00 | 0.00 | 48 | 1011.1 |
| 20260510141114 | 68 | 19 | 13.0 | 24.3 | 0.00 | 0.00 | 0.00 | 48 | 1011.1 |
| 20260510141019 | 68 | 66 | 13.0 | 24.3 | 0.00 | 0.00 | 0.00 | 48 | 1011.1 |
| 20260510140916 | 68 | 102 | 13.9 | 24.3 | 0.00 | 0.00 | 0.00 | 48 | 1011.1 |
| 20260510140809 | 68 | 346 | 14.8 | 29.5 | 0.00 | 0.00 | 0.00 | 48 | 1011.1 |
| 20260510140718 | 68 | 351 | 14.8 | 29.5 | 0.00 | 0.00 | 0.00 | 48 | 1011.1 |
| 20260510140616 | 68 | 63 | 14.8 | 29.5 | 0.00 | 0.00 | 0.00 | 48 | 1011.1 |
| 20260510140508 | 68 | 318 | 15.6 | 29.5 | 0.00 | 0.00 | 0.00 | 48 | 1011.1 |
| 20260510140413 | 68 | 338 | 16.5 | 29.5 | 0.00 | 0.00 | 0.00 | 48 | 1011.1 |
| 20260510140313 | 68 | 44 | 16.5 | 29.5 | 0.00 | 0.00 | 0.00 | 47 | 1011.1 |
| 20260510140249 | 68 | 346 | 17.4 | 29.5 | 0.00 | 0.00 | 0.00 | 47 | 1011.1 |
| 20260510140111 | 68 | 336 | 17.4 | 29.5 | 0.00 | 0.00 | 0.00 | 47 | 1011.1 |
| 20260510140014 | 68 | 340 | 17.4 | 29.5 | 0.00 | 0.00 | 0.00 | 47 | 1011.1 |
| 20260510135908 | 68 | 96 | 17.4 | 29.5 | 0.00 | 0.00 | 0.00 | 46 | 1011.1 |
| 20260510135807 | 68 | 319 | 17.4 | 26.9 | 0.00 | 0.00 | 0.00 | 46 | 1011.2 |
| 20260510135652 | 68 | 57 | 17.4 | 26.9 | 0.00 | 0.00 | 0.00 | 46 | 1010.3 |
| 20260510135557 | 68 | 70 | 17.4 | 26.9 | 0.00 | 0.00 | 0.00 | 46 | 1010.3 |
| 20260510135452 | 69 | 45 | 18.2 | 27.8 | 0.00 | 0.00 | 0.00 | 46 | 1010.5 |
| 20260510135353 | 69 | 346 | 18.2 | 27.8 | 0.00 | 0.00 | 0.00 | 45 | 1010.5 |
| 20260510135254 | 69 | 22 | 17.4 | 27.8 | 0.00 | 0.00 | 0.00 | 45 | 1010.5 |
| 20260510135229 | 69 | 324 | 17.4 | 27.8 | 0.00 | 0.00 | 0.00 | 45 | 1010.6 |
| 20260510135054 | 69 | 321 | 16.5 | 27.8 | 0.00 | 0.00 | 0.00 | 44 | 1010.6 |
| 20260510134939 | 69 | 61 | 16.5 | 27.8 | 0.00 | 0.00 | 0.00 | 44 | 1010.6 |
| 20260510134847 | 69 | 290 | 15.6 | 27.8 | 0.00 | 0.00 | 0.00 | 44 | 1010.6 |
| 20260510134801 | 69 | 329 | 15.6 | 27.8 | 0.00 | 0.00 | 0.00 | 43 | 1010.7 |
| 20260510134643 | 70 | 40 | 15.6 | 27.8 | 0.00 | 0.00 | 0.00 | 43 | 1010.7 |
| 20260510134539 | 70 | 15 | 14.8 | 27.8 | 0.00 | 0.00 | 0.00 | 42 | 1010.7 |
| 20260510134442 | 70 | 26 | 13.9 | 22.6 | 0.00 | 0.00 | 0.00 | 42 | 1010.8 |
| 20260510134337 | 70 | 325 | 13.9 | 22.6 | 0.00 | 0.00 | 0.00 | 42 | 1010.8 |
| 20260510134237 | 70 | 320 | 13.9 | 22.6 | 0.00 | 0.00 | 0.00 | 42 | 1010.8 |
| 20260510134138 | 70 | 284 | 13.9 | 21.7 | 0.00 | 0.00 | 0.00 | 43 | 1009.7 |
| 20260510134040 | 70 | 326 | 13.9 | 21.7 | 0.00 | 0.00 | 0.00 | 44 | 1009.7 |
| 20260510133937 | 70 | 324 | 13.9 | 21.7 | 0.00 | 0.00 | 0.00 | 44 | 1009.7 |
| 20260510133836 | 70 | 28 | 13.9 | 21.7 | 0.00 | 0.00 | 0.00 | 45 | 1009.7 |
| 20260510133738 | 70 | 335 | 13.0 | 21.7 | 0.00 | 0.00 | 0.00 | 46 | 1009.7 |
| 20260510133713 | 70 | 93 | 13.0 | 21.7 | 0.00 | 0.00 | 0.00 | 46 | 1009.7 |
| 20260510133530 | 70 | 329 | 13.0 | 20.9 | 0.00 | 0.00 | 0.00 | 46 | 1009.7 |
| 20260510133430 | 70 | 324 | 13.0 | 20.9 | 0.00 | 0.00 | 0.00 | 46 | 1009.7 |
| 20260510133328 | 70 | 333 | 13.0 | 24.3 | 0.00 | 0.00 | 0.00 | 47 | 1009.7 |
| 20260510133236 | 70 | 173 | 13.0 | 24.3 | 0.00 | 0.00 | 0.00 | 48 | 1009.7 |
| 20260510133128 | 70 | 25 | 13.0 | 24.3 | 0.00 | 0.00 | 0.00 | 48 | 1009.7 |
| 20260510133026 | 70 | 341 | 13.0 | 24.3 | 0.00 | 0.00 | 0.00 | 48 | 1009.7 |
| 20260510132918 | 70 | 319 | 13.0 | 24.3 | 0.00 | 0.00 | 0.00 | 49 | 1009.7 |
| 20260510132820 | 70 | 111 | 13.0 | 24.3 | 0.00 | 0.00 | 0.00 | 49 | 1009.7 |
| 20260510132725 | 70 | 342 | 13.9 | 24.3 | 0.00 | 0.00 | 0.00 | 49 | 1009.0 |
| 20260510132712 | 70 | 337 | 13.9 | 24.3 | 0.00 | 0.00 | 0.00 | 49 | 1009.0 |
| 20260510132512 | 70 | 53 | 13.9 | 24.3 | 0.00 | 0.00 | 0.00 | 49 | 1009.0 |
| 20260510132402 | 70 | 349 | 13.9 | 24.3 | 0.00 | 0.00 | 0.00 | 48 | 1009.0 |
| 20260510132310 | 70 | 341 | 13.9 | 20.9 | 0.00 | 0.00 | 0.00 | 47 | 1009.0 |
| 20260510132201 | 70 | 346 | 13.0 | 20.9 | 0.00 | 0.00 | 0.00 | 46 | 1009.0 |
| 20260510132057 | 70 | 53 | 13.0 | 20.9 | 0.00 | 0.00 | 0.00 | 46 | 1009.0 |
| 20260510131955 | 70 | 349 | 13.9 | 20.9 | 0.00 | 0.00 | 0.00 | 46 | 1009.0 |
| 20260510131851 | 70 | 342 | 13.9 | 20.9 | 0.00 | 0.00 | 0.00 | 46 | 1009.0 |
| 20260510131751 | 70 | 333 | 13.9 | 20.9 | 0.00 | 0.00 | 0.00 | 45 | 1009.0 |
| 20260510131654 | 70 | 341 | 13.9 | 20.9 | 0.00 | 0.00 | 0.00 | 44 | 1009.0 |
| 20260510131551 | 70 | 20 | 13.9 | 20.9 | 0.00 | 0.00 | 0.00 | 44 | 1009.0 |
| 20260510131459 | 70 | 9 | 13.0 | 20.9 | 0.00 | 0.00 | 0.00 | 43 | 1009.0 |
| 20260510131356 | 70 | 325 | 13.9 | 20.9 | 0.00 | 0.00 | 0.00 | 41 | 1009.0 |
| 20260510131253 | 70 | 343 | 13.0 | 20.9 | 0.00 | 0.00 | 0.00 | 41 | 1009.0 |
| 20260510131147 | 70 | 14 | 13.0 | 20.9 | 0.00 | 0.00 | 0.00 | 41 | 1007.9 |
| 20260510131050 | 70 | 0 | 13.9 | 26.1 | 0.00 | 0.00 | 0.00 | 40 | 1007.9 |
| 20260510130947 | 70 | 315 | 13.0 | 26.1 | 0.00 | 0.00 | 0.00 | 40 | 1007.9 |
| 20260510130836 | 70 | 309 | 13.0 | 26.1 | 0.00 | 0.00 | 0.00 | 39 | 1007.9 |
| 20260510130740 | 70 | 319 | 13.0 | 26.1 | 0.00 | 0.00 | 0.00 | 39 | 1007.9 |
| 20260510130642 | 70 | 327 | 12.2 | 26.1 | 0.00 | 0.00 | 0.00 | 39 | 1007.9 |
| 20260510130542 | 70 | 272 | 12.2 | 26.1 | 0.00 | 0.00 | 0.00 | 38 | 1007.9 |
| 20260510130445 | 70 | 277 | 11.3 | 26.1 | 0.00 | 0.00 | 0.00 | 37 | 1007.9 |
| 20260510130339 | 70 | 39 | 9.6 | 26.1 | 0.00 | 0.00 | 0.00 | 36 | 1007.8 |
| 20260510130325 | 70 | 306 | 9.6 | 26.1 | 0.00 | 0.00 | 0.00 | 36 | 1007.8 |
| 20260510130253 | 70 | 306 | 9.6 | 26.1 | 0.00 | 0.00 | 0.00 | 36 | 1007.8 |
| 20260510130141 | 70 | 319 | 9.6 | 26.1 | 0.00 | 0.00 | 0.00 | 36 | 1007.8 |
| 20260510130039 | 70 | 313 | 8.7 | 19.1 | 0.00 | 0.00 | 0.00 | 35 | 1007.8 |
| 20260510125933 | 70 | 261 | 8.7 | 18.2 | 0.00 | 0.00 | 0.00 | 34 | 1007.8 |
| 20260510125833 | 69 | 343 | 8.7 | 15.6 | 0.00 | 0.00 | 0.00 | 34 | 1007.7 |
| 20260510125733 | 69 | 316 | 7.8 | 15.6 | 0.00 | 0.00 | 0.00 | 34 | 1007.5 |
| 20260510125644 | 69 | 298 | 7.8 | 15.6 | 0.00 | 0.00 | 0.00 | 34 | 1007.5 |
| 20260510125542 | 69 | 331 | 7.8 | 15.6 | 0.00 | 0.00 | 0.00 | 34 | 1007.4 |
| 20260510125433 | 69 | 19 | 7.8 | 15.6 | 0.00 | 0.00 | 0.00 | 34 | 1007.4 |
| 20260510125332 | 68 | 317 | 7.8 | 15.6 | 0.00 | 0.00 | 0.00 | 35 | 1007.2 |
| 20260510125232 | 68 | 330 | 7.0 | 15.6 | 0.00 | 0.00 | 0.00 | 35 | 1007.2 |
| 20260510125136 | 68 | 336 | 7.0 | 13.0 | 0.00 | 0.00 | 0.00 | 35 | 1007.2 |
| 20260510125038 | 68 | 337 | 7.0 | 13.0 | 0.00 | 0.00 | 0.00 | 35 | 1007.1 |
| 20260510124940 | 67 | 296 | 6.1 | 12.2 | 0.00 | 0.00 | 0.00 | 35 | 1007.0 |
| 20260510124835 | 67 | 315 | 6.1 | 11.3 | 0.00 | 0.00 | 0.00 | 35 | 1007.0 |
| 20260510124805 | 67 | 336 | 5.2 | 11.3 | 0.00 | 0.00 | 0.00 | 35 | 1006.9 |
| 20260510124626 | 67 | 331 | 5.2 | 11.3 | 0.00 | 0.00 | 0.00 | 35 | 1006.9 |
| 20260510124530 | 67 | 13 | 4.3 | 11.3 | 0.00 | 0.00 | 0.00 | 36 | 1006.9 |
| 20260510124435 | 66 | 304 | 4.3 | 10.4 | 0.00 | 0.00 | 0.00 | 36 | 1006.8 |
| 20260510124327 | 66 | 295 | 4.3 | 10.4 | 0.00 | 0.00 | 0.00 | 36 | 1006.8 |
| 20260510124228 | 66 | 346 | 4.3 | 10.4 | 0.00 | 0.00 | 0.00 | 36 | 1006.5 |
| 20260510124133 | 66 | 323 | 4.3 | 10.4 | 0.00 | 0.00 | 0.00 | 36 | 1006.4 |
| 20260510124022 | 66 | 344 | 4.3 | 10.4 | 0.00 | 0.00 | 0.00 | 36 | 1006.4 |
| 20260510123924 | 66 | 311 | 4.3 | 9.6 | 0.00 | 0.00 | 0.00 | 37 | 1006.4 |
| 20260510123827 | 65 | 304 | 4.3 | 9.6 | 0.00 | 0.00 | 0.00 | 37 | 1006.2 |
| 20260510123713 | 65 | 300 | 4.3 | 9.6 | 0.00 | 0.00 | 0.00 | 37 | 1006.2 |
| 20260510123619 | 65 | 296 | 4.3 | 9.6 | 0.00 | 0.00 | 0.00 | 37 | 1006.2 |
| 20260510123523 | 65 | 318 | 4.3 | 9.6 | 0.00 | 0.00 | 0.00 | 38 | 1006.1 |
| 20260510123425 | 65 | 311 | 4.3 | 9.6 | 0.00 | 0.00 | 0.00 | 38 | 1006.1 |
| 20260510123313 | 65 | 337 | 4.3 | 9.6 | 0.00 | 0.00 | 0.00 | 39 | 1006.1 |
| 20260510123210 | 64 | 306 | 4.3 | 9.6 | 0.00 | 0.00 | 0.00 | 39 | 1006.0 |
| 20260510123110 | 64 | 307 | 3.5 | 9.6 | 0.00 | 0.00 | 0.00 | 40 | 1006.0 |
| 20260510123022 | 64 | 302 | 3.5 | 9.6 | 0.00 | 0.00 | 0.00 | 41 | 1006.0 |
| 20260510122910 | 64 | 320 | 2.6 | 9.6 | 0.00 | 0.00 | 0.00 | 41 | 1006.0 |
| 20260510122816 | 64 | 336 | 2.6 | 9.6 | 0.00 | 0.00 | 0.00 | 41 | 1005.9 |
| 20260510122708 | 64 | 307 | 1.7 | 9.6 | 0.00 | 0.00 | 0.00 | 41 | 1005.2 |
| 20260510122610 | 63 | 348 | 1.7 | 9.6 | 0.00 | 0.00 | 0.00 | 41 | 1005.1 |
| 20260510122506 | 63 | 302 | 0.9 | 9.6 | 0.00 | 0.00 | 0.00 | 41 | 1005.0 |
| 20260510122411 | 63 | 297 | 0.9 | 7.0 | 0.00 | 0.00 | 0.00 | 42 | 1005.0 |
| 20260510122306 | 63 | 315 | 0.0 | 3.5 | 0.00 | 0.00 | 0.00 | 43 | 1005.0 |
| 20260510122239 | 63 | 339 | 0.0 | 3.5 | 0.00 | 0.00 | 0.00 | 42 | 1005.0 |
| 20260510122205 | 63 | 339 | 0.0 | 3.5 | 0.00 | 0.00 | 0.00 | 42 | 1005.0 |
| 20260510122104 | 62 | 321 | 0.0 | 1.7 | 0.00 | 0.00 | 0.00 | 42 | 1004.9 |
| 20260510121956 | 62 | 38 | 0.0 | 1.7 | 0.00 | 0.00 | 0.00 | 41 | 1004.9 |
| 20260510121843 | 63 | 319 | 0.0 | 1.7 | 0.00 | 0.00 | 0.00 | 41 | 1005.0 |
| 20260510121743 | 63 | 331 | 0.0 | 1.7 | 0.00 | 0.00 | 0.00 | 41 | 1005.0 |
| 20260510121637 | 63 | 330 | 0.0 | 1.7 | 0.00 | 0.00 | 0.00 | 41 | 1005.0 |
| 20260510121536 | 63 | 343 | 0.0 | 3.5 | 0.00 | 0.00 | 0.00 | 41 | 1005.0 |
| 20260510121425 | 63 | 307 | 0.0 | 3.5 | 0.00 | 0.00 | 0.00 | 40 | 1005.0 |
| 20260510121329 | 63 | 49 | 0.0 | 3.5 | 0.00 | 0.00 | 0.00 | 39 | 1005.1 |
| 20260510121228 | 63 | 332 | 0.0 | 3.5 | 0.00 | 0.00 | 0.00 | 39 | 1004.6 |
| 20260510121108 | 63 | 279 | 0.0 | 3.5 | 0.00 | 0.00 | 0.00 | 39 | 1004.6 |
| 20260510121022 | 64 | 279 | 0.0 | 3.5 | 0.00 | 0.00 | 0.00 | 39 | 1004.6 |
| 20260510120912 | 64 | 279 | 0.0 | 3.5 | 0.00 | 0.00 | 0.00 | 39 | 1004.6 |
| 20260510120812 | 64 | 279 | 0.0 | 3.5 | 0.00 | 0.00 | 0.00 | 39 | 1004.6 |
| 20260510120706 | 64 | 279 | 0.0 | 3.5 | 0.00 | 0.00 | 0.00 | 39 | 1004.6 |
| 20260510120605 | 64 | 309 | 0.0 | 3.5 | 0.00 | 0.00 | 0.00 | 39 | 1004.7 |
| 20260510120511 | 64 | 262 | 0.0 | 1.7 | 0.00 | 0.00 | 0.00 | 39 | 1004.7 |
| 20260510120406 | 64 | 262 | 0.0 | 1.7 | 0.00 | 0.00 | 0.00 | 38 | 1004.7 |
| 20260510120300 | 64 | 256 | 0.0 | 1.7 | 0.00 | 0.00 | 0.00 | 38 | 1004.7 |
| 20260510120151 | 64 | 306 | 0.0 | 1.7 | 0.00 | 0.00 | 0.00 | 39 | 1004.7 |
| 20260510120051 | 63 | 304 | 0.0 | 1.7 | 0.00 | 0.00 | 0.00 | 39 | 1004.6 |
| 20260510115948 | 63 | 302 | 0.0 | 1.7 | 0.00 | 0.00 | 0.00 | 39 | 1004.6 |
| 20260510115836 | 63 | 308 | 0.0 | 1.7 | 0.00 | 0.00 | 0.00 | 40 | 1004.6 |
| 20260510115735 | 63 | 274 | 0.0 | 0.9 | 0.00 | 0.00 | 0.00 | 40 | 1004.6 |
| 20260510115631 | 63 | 268 | 0.0 | 0.9 | 0.00 | 0.00 | 0.00 | 39 | 1004.1 |
| 20260510115528 | 64 | 267 | 0.0 | 0.9 | 0.00 | 0.00 | 0.00 | 39 | 1004.3 |
| 20260510115418 | 64 | 254 | 0.0 | 0.9 | 0.00 | 0.00 | 0.00 | 39 | 1004.3 |
| 20260510115311 | 64 | 254 | 0.0 | 0.9 | 0.00 | 0.00 | 0.00 | 39 | 1004.3 |
| 20260510115213 | 64 | 254 | 0.0 | 0.9 | 0.00 | 0.00 | 0.00 | 39 | 1004.3 |
| 20260510115113 | 64 | 248 | 0.0 | 0.9 | 0.00 | 0.00 | 0.00 | 39 | 1004.3 |
| 20260510115015 | 64 | 273 | 0.0 | 0.0 | 0.00 | 0.00 | 0.00 | 38 | 1004.3 |
| 20260510114915 | 64 | 273 | 0.0 | 0.9 | 0.00 | 0.00 | 0.00 | 38 | 1004.3 |
| 20260510114813 | 64 | 273 | 0.0 | 0.9 | 0.00 | 0.00 | 0.00 | 39 | 1004.4 |
| 20260510114706 | 64 | 273 | 0.0 | 0.9 | 0.00 | 0.00 | 0.00 | 38 | 1004.4 |
| 20260510114622 | 64 | 273 | 0.9 | 5.2 | 0.00 | 0.00 | 0.00 | 38 | 1004.4 |
| 20260510114510 | 64 | 273 | 0.9 | 8.7 | 0.00 | 0.00 | 0.00 | 38 | 1004.4 |
| 20260510114412 | 64 | 273 | 1.7 | 11.3 | 0.00 | 0.00 | 0.00 | 38 | 1004.4 |
| 20260510114250 | 64 | 273 | 2.6 | 11.3 | 0.00 | 0.00 | 0.00 | 38 | 1004.4 |
| 20260510114147 | 64 | 273 | 2.6 | 11.3 | 0.00 | 0.00 | 0.00 | 38 | 1003.7 |
| 20260510114039 | 64 | 273 | 2.6 | 11.3 | 0.00 | 0.00 | 0.00 | 38 | 1003.6 |
| 20260510113938 | 64 | 296 | 2.6 | 11.3 | 0.00 | 0.00 | 0.00 | 39 | 1003.6 |
| 20260510113837 | 64 | 296 | 2.6 | 11.3 | 0.00 | 0.00 | 0.00 | 39 | 1003.6 |
| 20260510113740 | 64 | 298 | 2.6 | 11.3 | 0.00 | 0.00 | 0.00 | 39 | 1003.6 |
| 20260510113612 | 64 | 299 | 2.6 | 11.3 | 0.00 | 0.00 | 0.00 | 39 | 1003.6 |
| 20260510113512 | 64 | 292 | 1.7 | 11.3 | 0.00 | 0.00 | 0.00 | 39 | 1003.7 |
| 20260510113414 | 64 | 316 | 0.9 | 10.4 | 0.00 | 0.00 | 0.00 | 38 | 1003.7 |
| 20260510113312 | 64 | 284 | 0.0 | 7.8 | 0.00 | 0.00 | 0.00 | 37 | 1003.6 |
| 20260510113212 | 64 | 283 | 0.0 | 2.6 | 0.00 | 0.00 | 0.00 | 37 | 1003.6 |
| 20260510113116 | 64 | 279 | 0.0 | 1.7 | 0.00 | 0.00 | 0.00 | 37 | 1003.7 |
| 20260510113013 | 64 | 238 | 0.0 | 1.7 | 0.00 | 0.00 | 0.00 | 37 | 1003.7 |
| 20260510112911 | 65 | 145 | 0.0 | 1.7 | 0.00 | 0.00 | 0.00 | 37 | 1003.8 |
| 20260510112813 | 65 | 137 | 0.0 | 1.7 | 0.00 | 0.00 | 0.00 | 36 | 1003.8 |
| 20260510112707 | 65 | 151 | 0.9 | 3.5 | 0.00 | 0.00 | 0.00 | 36 | 1003.6 |
| 20260510112608 | 65 | 273 | 0.9 | 5.2 | 0.00 | 0.00 | 0.00 | 35 | 1003.6 |
| 20260510112501 | 65 | 269 | 0.9 | 5.2 | 0.00 | 0.00 | 0.00 | 35 | 1003.6 |
| 20260510112402 | 65 | 209 | 0.9 | 5.2 | 0.00 | 0.00 | 0.00 | 35 | 1003.7 |
| 20260510112255 | 65 | 248 | 0.9 | 5.2 | 0.00 | 0.00 | 0.00 | 35 | 1003.7 |
| 20260510112152 | 65 | 262 | 0.9 | 5.2 | 0.00 | 0.00 | 0.00 | 35 | 1003.7 |
| 20260510112046 | 65 | 280 | 0.9 | 5.2 | 0.00 | 0.00 | 0.00 | 34 | 1003.8 |
| 20260510111940 | 65 | 273 | 0.9 | 5.2 | 0.00 | 0.00 | 0.00 | 34 | 1003.8 |
| 20260510111844 | 65 | 273 | 0.9 | 5.2 | 0.00 | 0.00 | 0.00 | 34 | 1003.8 |
| 20260510111727 | 66 | 282 | 0.9 | 5.2 | 0.00 | 0.00 | 0.00 | 34 | 1003.8 |
| 20260510111623 | 66 | 289 | 0.0 | 3.5 | 0.00 | 0.00 | 0.00 | 34 | 1003.8 |
| 20260510111522 | 66 | 292 | 0.0 | 1.7 | 0.00 | 0.00 | 0.00 | 34 | 1003.8 |
| 20260510111414 | 66 | 329 | 0.0 | 1.7 | 0.00 | 0.00 | 0.00 | 34 | 1003.8 |
| 20260510111309 | 66 | 329 | 0.0 | 1.7 | 0.00 | 0.00 | 0.00 | 34 | 1003.8 |
| 20260510111216 | 66 | 328 | 0.0 | 1.7 | 0.00 | 0.00 | 0.00 | 34 | 1003.9 |
| 20260510111107 | 66 | 333 | 0.0 | 1.7 | 0.00 | 0.00 | 0.00 | 33 | 1003.9 |
| 20260510111011 | 66 | 38 | 0.0 | 1.7 | 0.00 | 0.00 | 0.00 | 33 | 1003.9 |
| 20260510110911 | 66 | 109 | 0.0 | 1.7 | 0.00 | 0.00 | 0.00 | 34 | 1003.9 |
| 20260510110810 | 66 | 113 | 0.0 | 1.7 | 0.00 | 0.00 | 0.00 | 33 | 1003.9 |
| 20260510110710 | 66 | 102 | 0.0 | 3.5 | 0.00 | 0.00 | 0.00 | 33 | 1003.9 |
| 20260510110551 | 66 | 139 | 0.0 | 3.5 | 0.00 | 0.00 | 0.00 | 33 | 1003.9 |
| 20260510110448 | 66 | 153 | 0.0 | 3.5 | 0.00 | 0.00 | 0.00 | 33 | 1003.9 |
| 20260510110344 | 66 | 146 | 0.0 | 3.5 | 0.00 | 0.00 | 0.00 | 33 | 1003.9 |
| 20260510110246 | 66 | 157 | 0.0 | 3.5 | 0.00 | 0.00 | 0.00 | 33 | 1003.9 |
| 20260510110127 | 66 | 111 | 0.0 | 3.5 | 0.00 | 0.00 | 0.00 | 33 | 1004.0 |
| 20260510110013 | 66 | 169 | 0.0 | 3.5 | 0.00 | 0.00 | 0.00 | 33 | 1004.0 |
| 20260510105911 | 66 | 102 | 0.0 | 3.5 | 0.00 | 0.00 | 0.00 | 33 | 1004.0 |
| 20260510105810 | 66 | 117 | 0.0 | 3.5 | 0.00 | 0.00 | 0.00 | 32 | 1004.0 |
| 20260510105711 | 66 | 117 | 0.0 | 0.9 | 0.00 | 0.00 | 0.00 | 32 | 1004.3 |
| 20260510105609 | 67 | 136 | 0.0 | 0.9 | 0.00 | 0.00 | 0.00 | 33 | 1004.3 |
| 20260510105513 | 67 | 119 | 0.0 | 0.9 | 0.00 | 0.00 | 0.00 | 33 | 1004.3 |
| 20260510105411 | 67 | 90 | 0.0 | 0.9 | 0.00 | 0.00 | 0.00 | 33 | 1004.3 |
| 20260510105310 | 67 | 91 | 0.0 | 0.9 | 0.00 | 0.00 | 0.00 | 33 | 1004.4 |
| 20260510105158 | 67 | 91 | 0.0 | 0.9 | 0.00 | 0.00 | 0.00 | 33 | 1004.4 |
| 20260510105038 | 67 | 96 | 0.0 | 0.9 | 0.00 | 0.00 | 0.00 | 33 | 1004.4 |
| 20260510104934 | 67 | 117 | 0.0 | 0.9 | 0.00 | 0.00 | 0.00 | 33 | 1004.4 |
| 20260510104835 | 67 | 113 | 0.0 | 0.9 | 0.00 | 0.00 | 0.00 | 33 | 1004.4 |
| 20260510104717 | 67 | 207 | 0.0 | 0.9 | 0.00 | 0.00 | 0.00 | 33 | 1004.4 |
| 20260510104622 | 67 | 230 | 0.0 | 0.9 | 0.00 | 0.00 | 0.00 | 32 | 1004.4 |
| 20260510104515 | 67 | 230 | 0.0 | 0.0 | 0.00 | 0.00 | 0.00 | 32 | 1004.4 |
| 20260510104414 | 67 | 231 | 0.0 | 0.0 | 0.00 | 0.00 | 0.00 | 32 | 1004.4 |
| 20260510104311 | 67 | 200 | 0.0 | 0.9 | 0.00 | 0.00 | 0.00 | 32 | 1004.4 |
| 20260510104212 | 67 | 160 | 0.0 | 0.9 | 0.00 | 0.00 | 0.00 | 32 | 1003.8 |
| 20260510104111 | 67 | 159 | 0.0 | 1.7 | 0.00 | 0.00 | 0.00 | 32 | 1003.8 |
| 20260510104012 | 67 | 160 | 0.0 | 1.7 | 0.00 | 0.00 | 0.00 | 33 | 1003.9 |
| 20260510103911 | 67 | 166 | 0.0 | 3.5 | 0.00 | 0.00 | 0.00 | 33 | 1003.9 |
| 20260510103809 | 67 | 162 | 0.0 | 3.5 | 0.00 | 0.00 | 0.00 | 33 | 1003.9 |
| 20260510103649 | 67 | 120 | 0.0 | 3.5 | 0.00 | 0.00 | 0.00 | 33 | 1003.9 |
| 20260510103543 | 67 | 119 | 0.0 | 3.5 | 0.00 | 0.00 | 0.00 | 32 | 1003.9 |
| 20260510103443 | 67 | 110 | 0.0 | 3.5 | 0.00 | 0.00 | 0.00 | 33 | 1003.9 |
| 20260510103348 | 67 | 101 | 0.0 | 3.5 | 0.00 | 0.00 | 0.00 | 33 | 1003.9 |
| 20260510103236 | 67 | 101 | 0.0 | 3.5 | 0.00 | 0.00 | 0.00 | 33 | 1003.9 |
| 20260510103144 | 67 | 69 | 0.0 | 3.5 | 0.00 | 0.00 | 0.00 | 33 | 1003.9 |
| 20260510103042 | 68 | 44 | 0.0 | 3.5 | 0.00 | 0.00 | 0.00 | 33 | 1003.9 |
| 20260510102938 | 68 | 53 | 0.0 | 1.7 | 0.00 | 0.00 | 0.00 | 32 | 1003.9 |
| 20260510102837 | 68 | 80 | 0.0 | 0.9 | 0.00 | 0.00 | 0.00 | 32 | 1004.0 |
| 20260510102734 | 68 | 80 | 0.0 | 1.7 | 0.00 | 0.00 | 0.00 | 33 | 1003.9 |
| 20260510102632 | 68 | 80 | 0.0 | 1.7 | 0.00 | 0.00 | 0.00 | 33 | 1003.9 |
| 20260510102529 | 68 | 80 | 0.0 | 1.7 | 0.00 | 0.00 | 0.00 | 32 | 1003.9 |
| 20260510102423 | 68 | 80 | 0.0 | 1.7 | 0.00 | 0.00 | 0.00 | 31 | 1003.9 |
| 20260510102319 | 68 | 80 | 0.0 | 1.7 | 0.00 | 0.00 | 0.00 | 31 | 1004.0 |
| 20260510102215 | 68 | 80 | 0.0 | 1.7 | 0.00 | 0.00 | 0.00 | 31 | 1004.0 |
| 20260510102112 | 68 | 100 | 0.0 | 1.7 | 0.00 | 0.00 | 0.00 | 31 | 1004.0 |
| 20260510102023 | 68 | 82 | 0.0 | 1.7 | 0.00 | 0.00 | 0.00 | 31 | 1004.0 |
| 20260510101916 | 68 | 109 | 0.0 | 1.7 | 0.00 | 0.00 | 0.00 | 30 | 1004.0 |
| 20260510101813 | 68 | 108 | 0.9 | 3.5 | 0.00 | 0.00 | 0.00 | 30 | 1004.0 |
| 20260510101703 | 68 | 107 | 0.9 | 8.7 | 0.00 | 0.00 | 0.00 | 30 | 1004.0 |
| 20260510101605 | 69 | 82 | 0.9 | 8.7 | 0.00 | 0.00 | 0.00 | 30 | 1004.0 |
| 20260510101500 | 69 | 175 | 0.9 | 8.7 | 0.00 | 0.00 | 0.00 | 30 | 1004.0 |
| 20260510101336 | 69 | 175 | 0.9 | 8.7 | 0.00 | 0.00 | 0.00 | 30 | 1004.0 |
| 20260510101245 | 69 | 175 | 0.9 | 8.7 | 0.00 | 0.00 | 0.00 | 29 | 1004.0 |
| 20260510101141 | 69 | 175 | 0.9 | 8.7 | 0.00 | 0.00 | 0.00 | 29 | 1003.5 |
| 20260510101037 | 69 | 197 | 0.9 | 8.7 | 0.00 | 0.00 | 0.00 | 29 | 1003.5 |
| 20260510100939 | 69 | 312 | 0.9 | 8.7 | 0.00 | 0.00 | 0.00 | 30 | 1003.5 |
| 20260510100838 | 69 | 11 | 0.9 | 8.7 | 0.00 | 0.00 | 0.00 | 30 | 1003.5 |
| 20260510100731 | 69 | 86 | 0.0 | 6.1 | 0.00 | 0.00 | 0.00 | 30 | 1003.5 |
| 20260510100628 | 69 | 48 | 0.0 | 4.3 | 0.00 | 0.00 | 0.00 | 29 | 1003.6 |
| 20260510100519 | 69 | 22 | 0.0 | 0.9 | 0.00 | 0.00 | 0.00 | 29 | 1003.6 |
| 20260510100412 | 69 | 76 | 0.0 | 2.6 | 0.00 | 0.00 | 0.00 | 29 | 1003.6 |
| 20260510100313 | 69 | 89 | 0.0 | 2.6 | 0.00 | 0.00 | 0.00 | 30 | 1003.6 |
| 20260510100212 | 69 | 103 | 0.0 | 4.3 | 0.00 | 0.00 | 0.00 | 30 | 1003.6 |
| 20260510100114 | 69 | 67 | 0.0 | 4.3 | 0.00 | 0.00 | 0.00 | 30 | 1003.6 |
| 20260510100008 | 69 | 0 | 0.0 | 4.3 | 0.00 | 0.00 | 0.00 | 30 | 1003.6 |
| 20260510095905 | 69 | 355 | 0.0 | 4.3 | 0.00 | 0.00 | 0.00 | 29 | 1003.6 |
| 20260510095737 | 69 | 98 | 0.0 | 4.3 | 0.00 | 0.00 | 0.00 | 28 | 1003.6 |
| 20260510095650 | 69 | 97 | 0.0 | 4.3 | 0.00 | 0.00 | 0.00 | 29 | 1003.6 |
| 20260510095540 | 69 | 100 | 0.0 | 4.3 | 0.00 | 0.00 | 0.00 | 29 | 1003.6 |
| 20260510095445 | 69 | 119 | 0.0 | 4.3 | 0.00 | 0.00 | 0.00 | 29 | 1003.6 |
| 20260510095345 | 69 | 129 | 0.0 | 4.3 | 0.00 | 0.00 | 0.00 | 29 | 1003.6 |
| 20260510095243 | 69 | 135 | 0.0 | 1.7 | 0.00 | 0.00 | 0.00 | 30 | 1003.6 |
| 20260510095139 | 69 | 113 | 0.0 | 0.9 | 0.00 | 0.00 | 0.00 | 30 | 1003.6 |
| 20260510095040 | 69 | 141 | 0.0 | 0.9 | 0.00 | 0.00 | 0.00 | 30 | 1003.6 |
| 20260510094935 | 69 | 132 | 0.0 | 0.9 | 0.00 | 0.00 | 0.00 | 29 | 1003.6 |
| 20260510094816 | 69 | 233 | 0.0 | 0.9 | 0.00 | 0.00 | 0.00 | 30 | 1003.6 |
| 20260510094715 | 69 | 248 | 0.0 | 0.9 | 0.00 | 0.00 | 0.00 | 29 | 1003.6 |
| 20260510094600 | 69 | 248 | 0.0 | 1.7 | 0.00 | 0.00 | 0.00 | 29 | 1003.6 |
| 20260510094443 | 69 | 250 | 0.9 | 3.5 | 0.00 | 0.00 | 0.00 | 29 | 1003.6 |
| 20260510094415 | 69 | 240 | 0.9 | 3.5 | 0.00 | 0.00 | 0.00 | 30 | 1003.6 |
| 20260510094239 | 69 | 240 | 0.9 | 3.5 | 0.00 | 0.00 | 0.00 | 30 | 1003.6 |
| 20260510094138 | 69 | 253 | 0.9 | 3.5 | 0.00 | 0.00 | 0.00 | 30 | 1003.5 |
| 20260510094042 | 69 | 242 | 0.9 | 3.5 | 0.00 | 0.00 | 0.00 | 30 | 1003.5 |
| 20260510093940 | 69 | 82 | 0.9 | 3.5 | 0.00 | 0.00 | 0.00 | 30 | 1003.6 |
| 20260510093828 | 69 | 81 | 0.9 | 3.5 | 0.00 | 0.00 | 0.00 | 30 | 1003.6 |
| 20260510093715 | 70 | 73 | 0.9 | 3.5 | 0.00 | 0.00 | 0.00 | 30 | 1003.6 |
| 20260510093626 | 70 | 79 | 0.9 | 3.5 | 0.00 | 0.00 | 0.00 | 30 | 1003.6 |
| 20260510093515 | 70 | 72 | 0.9 | 3.5 | 0.00 | 0.00 | 0.00 | 28 | 1003.6 |
| 20260510093442 | 70 | 65 | 0.0 | 3.5 | 0.00 | 0.00 | 0.00 | 28 | 1003.6 |
| 20260510093310 | 70 | 115 | 0.0 | 3.5 | 0.00 | 0.00 | 0.00 | 28 | 1003.7 |
| 20260510093212 | 70 | 115 | 0.9 | 3.5 | 0.00 | 0.00 | 0.00 | 28 | 1003.6 |
| 20260510093112 | 70 | 136 | 0.9 | 3.5 | 0.00 | 0.00 | 0.00 | 28 | 1003.7 |
| 20260510093004 | 70 | 163 | 0.9 | 3.5 | 0.00 | 0.00 | 0.00 | 28 | 1003.7 |
| 20260510092846 | 70 | 169 | 0.9 | 5.2 | 0.00 | 0.00 | 0.00 | 27 | 1003.7 |
| 20260510092744 | 70 | 173 | 0.9 | 5.2 | 0.00 | 0.00 | 0.00 | 27 | 1003.7 |
| 20260510092650 | 70 | 136 | 1.7 | 5.2 | 0.00 | 0.00 | 0.00 | 28 | 1003.5 |
| 20260510092538 | 70 | 158 | 0.9 | 5.2 | 0.00 | 0.00 | 0.00 | 28 | 1003.5 |
| 20260510092438 | 70 | 192 | 1.7 | 5.2 | 0.00 | 0.00 | 0.00 | 28 | 1003.6 |
| 20260510092342 | 70 | 228 | 1.7 | 5.2 | 0.00 | 0.00 | 0.00 | 28 | 1003.6 |
| 20260510092315 | 70 | 247 | 1.7 | 5.2 | 0.00 | 0.00 | 0.00 | 28 | 1003.6 |
| 20260510092244 | 70 | 247 | 1.7 | 5.2 | 0.00 | 0.00 | 0.00 | 28 | 1003.6 |
| 20260510092135 | 70 | 244 | 1.7 | 5.2 | 0.00 | 0.00 | 0.00 | 28 | 1003.6 |
| 20260510092047 | 70 | 248 | 1.7 | 5.2 | 0.00 | 0.00 | 0.00 | 28 | 1003.6 |
| 20260510091947 | 70 | 227 | 1.7 | 5.2 | 0.00 | 0.00 | 0.00 | 28 | 1003.6 |
| 20260510091843 | 70 | 258 | 1.7 | 5.2 | 0.00 | 0.00 | 0.00 | 28 | 1003.6 |
| 20260510091738 | 70 | 255 | 0.9 | 4.3 | 0.00 | 0.00 | 0.00 | 28 | 1003.6 |
| 20260510091639 | 70 | 245 | 0.9 | 1.7 | 0.00 | 0.00 | 0.00 | 28 | 1003.7 |
| 20260510091538 | 70 | 211 | 0.9 | 1.7 | 0.00 | 0.00 | 0.00 | 27 | 1003.6 |
| 20260510091439 | 70 | 193 | 0.9 | 1.7 | 0.00 | 0.00 | 0.00 | 27 | 1003.6 |
| 20260510091334 | 70 | 210 | 0.9 | 1.7 | 0.00 | 0.00 | 0.00 | 27 | 1003.6 |
| 20260510091231 | 70 | 180 | 0.9 | 1.7 | 0.00 | 0.00 | 0.00 | 27 | 1003.3 |
| 20260510091130 | 70 | 192 | 0.0 | 1.7 | 0.00 | 0.00 | 0.00 | 27 | 1003.3 |
| 20260510091031 | 70 | 192 | 0.0 | 1.7 | 0.00 | 0.00 | 0.00 | 27 | 1003.3 |
| 20260510090930 | 70 | 192 | 0.0 | 1.7 | 0.00 | 0.00 | 0.00 | 27 | 1003.3 |
| 20260510090825 | 70 | 202 | 0.0 | 1.7 | 0.00 | 0.00 | 0.00 | 27 | 1003.3 |
| 20260510090723 | 70 | 168 | 0.0 | 0.9 | 0.00 | 0.00 | 0.00 | 28 | 1003.3 |
| 20260510090619 | 70 | 165 | 0.0 | 0.9 | 0.00 | 0.00 | 0.00 | 28 | 1003.3 |
| 20260510090516 | 70 | 106 | 0.0 | 0.9 | 0.00 | 0.00 | 0.00 | 28 | 1003.3 |
| 20260510090410 | 70 | 98 | 0.0 | 0.9 | 0.00 | 0.00 | 0.00 | 29 | 1003.3 |
| 20260510090314 | 70 | 78 | 0.0 | 0.9 | 0.00 | 0.00 | 0.00 | 29 | 1003.3 |
| 20260510090213 | 70 | 78 | 0.0 | 0.9 | 0.00 | 0.00 | 0.00 | 29 | 1003.3 |
| 20260510090110 | 70 | 108 | 0.0 | 0.0 | 0.00 | 0.00 | 0.00 | 29 | 1003.3 |
| 20260510090018 | 70 | 143 | 0.0 | 0.0 | 0.00 | 0.00 | 0.00 | 28 | 1003.3 |
| 20260510085913 | 70 | 144 | 0.0 | 0.9 | 0.00 | 0.00 | 0.00 | 28 | 1003.3 |
| 20260510085814 | 71 | 144 | 0.0 | 0.9 | 0.00 | 0.00 | 0.00 | 27 | 1003.3 |
| 20260510085656 | 71 | 144 | 0.0 | 0.9 | 0.00 | 0.00 | 0.00 | 27 | 1003.0 |
| 20260510085540 | 71 | 141 | 0.0 | 4.3 | 0.00 | 0.00 | 0.00 | 27 | 1003.1 |
| 20260510085437 | 71 | 141 | 0.0 | 4.3 | 0.00 | 0.00 | 0.00 | 27 | 1003.1 |
| 20260510085342 | 71 | 141 | 0.0 | 4.3 | 0.00 | 0.00 | 0.00 | 27 | 1003.1 |
| 20260510085238 | 71 | 141 | 0.0 | 4.3 | 0.00 | 0.00 | 0.00 | 27 | 1003.3 |
| 20260510085214 | 71 | 141 | 0.0 | 4.3 | 0.00 | 0.00 | 0.00 | 27 | 1003.3 |
| 20260510085039 | 71 | 140 | 0.0 | 4.3 | 0.00 | 0.00 | 0.00 | 26 | 1003.3 |
| 20260510084938 | 71 | 141 | 0.0 | 4.3 | 0.00 | 0.00 | 0.00 | 26 | 1003.3 |
| 20260510084842 | 71 | 152 | 0.0 | 4.3 | 0.00 | 0.00 | 0.00 | 26 | 1003.3 |
| 20260510084741 | 72 | 145 | 0.9 | 4.3 | 0.00 | 0.00 | 0.00 | 26 | 1003.4 |
| 20260510084636 | 72 | 132 | 0.9 | 4.3 | 0.00 | 0.00 | 0.00 | 26 | 1003.4 |
| 20260510084536 | 72 | 124 | 0.9 | 4.3 | 0.00 | 0.00 | 0.00 | 26 | 1003.4 |
| 20260510084441 | 72 | 123 | 0.9 | 4.3 | 0.00 | 0.00 | 0.00 | 26 | 1003.4 |
| 20260510084338 | 72 | 78 | 0.9 | 4.3 | 0.00 | 0.00 | 0.00 | 26 | 1003.4 |
| 20260510084235 | 72 | 134 | 0.9 | 4.3 | 0.00 | 0.00 | 0.00 | 25 | 1003.6 |
| 20260510084130 | 72 | 121 | 0.9 | 4.3 | 0.00 | 0.00 | 0.00 | 25 | 1003.6 |
| 20260510084026 | 72 | 143 | 1.7 | 4.3 | 0.00 | 0.00 | 0.00 | 25 | 1003.6 |
| 20260510083910 | 72 | 178 | 1.7 | 4.3 | 0.00 | 0.00 | 0.00 | 25 | 1003.6 |
| 20260510083801 | 72 | 186 | 1.7 | 4.3 | 0.00 | 0.00 | 0.00 | 25 | 1003.6 |
| 20260510083702 | 72 | 173 | 1.7 | 4.3 | 0.00 | 0.00 | 0.00 | 26 | 1003.6 |
| 20260510083606 | 72 | 173 | 1.7 | 4.3 | 0.00 | 0.00 | 0.00 | 26 | 1003.6 |
| 20260510083500 | 72 | 189 | 1.7 | 4.3 | 0.00 | 0.00 | 0.00 | 26 | 1003.6 |
| 20260510083402 | 72 | 185 | 1.7 | 4.3 | 0.00 | 0.00 | 0.00 | 26 | 1003.6 |
| 20260510083251 | 72 | 193 | 1.7 | 4.3 | 0.00 | 0.00 | 0.00 | 26 | 1003.6 |
| 20260510083149 | 72 | 180 | 1.7 | 4.3 | 0.00 | 0.00 | 0.00 | 26 | 1003.6 |
| 20260510083048 | 72 | 190 | 1.7 | 4.3 | 0.00 | 0.00 | 0.00 | 26 | 1003.6 |
| 20260510082941 | 72 | 189 | 1.7 | 4.3 | 0.00 | 0.00 | 0.00 | 26 | 1003.6 |
| 20260510082845 | 72 | 214 | 1.7 | 4.3 | 0.00 | 0.00 | 0.00 | 26 | 1003.6 |
| 20260510082742 | 72 | 214 | 1.7 | 4.3 | 0.00 | 0.00 | 0.00 | 26 | 1003.6 |
| 20260510082642 | 72 | 217 | 1.7 | 4.3 | 0.00 | 0.00 | 0.00 | 26 | 1003.7 |
| 20260510082539 | 72 | 205 | 1.7 | 4.3 | 0.00 | 0.00 | 0.00 | 26 | 1003.6 |
| 20260510082441 | 72 | 186 | 1.7 | 4.3 | 0.00 | 0.00 | 0.00 | 26 | 1003.6 |
| 20260510082340 | 72 | 202 | 1.7 | 4.3 | 0.00 | 0.00 | 0.00 | 27 | 1003.7 |
| 20260510082238 | 72 | 196 | 1.7 | 4.3 | 0.00 | 0.00 | 0.00 | 27 | 1003.7 |
| 20260510082137 | 72 | 200 | 1.7 | 4.3 | 0.00 | 0.00 | 0.00 | 26 | 1003.7 |
| 20260510082035 | 72 | 173 | 0.9 | 4.3 | 0.00 | 0.00 | 0.00 | 26 | 1003.7 |
| 20260510081931 | 72 | 200 | 0.9 | 3.5 | 0.00 | 0.00 | 0.00 | 26 | 1003.7 |
| 20260510081831 | 72 | 207 | 0.9 | 3.5 | 0.00 | 0.00 | 0.00 | 26 | 1003.7 |
| 20260510081728 | 72 | 209 | 0.0 | 3.5 | 0.00 | 0.00 | 0.00 | 26 | 1003.7 |
| 20260510081630 | 72 | 190 | 0.0 | 3.5 | 0.00 | 0.00 | 0.00 | 26 | 1003.7 |
| 20260510081522 | 72 | 170 | 0.0 | 3.5 | 0.00 | 0.00 | 0.00 | 25 | 1003.7 |
| 20260510081427 | 72 | 200 | 0.0 | 1.7 | 0.00 | 0.00 | 0.00 | 26 | 1003.7 |
| 20260510081326 | 72 | 129 | 0.0 | 0.9 | 0.00 | 0.00 | 0.00 | 26 | 1003.7 |
| 20260510081220 | 72 | 194 | 0.0 | 0.9 | 0.00 | 0.00 | 0.00 | 26 | 1004.0 |
| 20260510081123 | 72 | 231 | 0.0 | 0.9 | 0.00 | 0.00 | 0.00 | 26 | 1004.1 |
| 20260510081012 | 72 | 232 | 0.0 | 0.9 | 0.00 | 0.00 | 0.00 | 26 | 1004.1 |
| 20260510080915 | 72 | 202 | 0.0 | 0.9 | 0.00 | 0.00 | 0.00 | 27 | 1004.1 |
| 20260510080813 | 72 | 211 | 0.0 | 0.9 | 0.00 | 0.00 | 0.00 | 27 | 1004.1 |
| 20260510080706 | 72 | 212 | 0.0 | 0.9 | 0.00 | 0.00 | 0.00 | 27 | 1004.1 |
| 20260510080613 | 72 | 221 | 0.0 | 1.7 | 0.00 | 0.00 | 0.00 | 26 | 1004.1 |
| 20260510080509 | 72 | 222 | 0.0 | 3.5 | 0.00 | 0.00 | 0.00 | 26 | 1004.1 |
| 20260510080404 | 72 | 201 | 0.9 | 3.5 | 0.00 | 0.00 | 0.00 | 26 | 1004.1 |
| 20260510080247 | 72 | 198 | 0.9 | 4.3 | 0.00 | 0.00 | 0.00 | 26 | 1004.1 |
| 20260510080150 | 72 | 224 | 0.9 | 4.3 | 0.00 | 0.00 | 0.00 | 26 | 1004.1 |
| 20260510080037 | 72 | 227 | 0.9 | 4.3 | 0.00 | 0.00 | 0.00 | 26 | 1004.1 |
| 20260510075941 | 72 | 221 | 0.9 | 4.3 | 0.00 | 0.00 | 0.00 | 26 | 1004.1 |
| 20260510075839 | 73 | 221 | 0.9 | 4.3 | 0.00 | 0.00 | 0.00 | 26 | 1004.3 |
| 20260510075733 | 72 | 211 | 0.9 | 4.3 | 0.00 | 0.00 | 0.00 | 26 | 1004.1 |
| 20260510075638 | 72 | 218 | 0.9 | 4.3 | 0.00 | 0.00 | 0.00 | 26 | 1004.0 |
| 20260510075537 | 72 | 187 | 0.0 | 4.3 | 0.00 | 0.00 | 0.00 | 26 | 1003.9 |
| 20260510075433 | 72 | 176 | 0.0 | 4.3 | 0.00 | 0.00 | 0.00 | 26 | 1003.9 |
| 20260510075338 | 72 | 114 | 0.0 | 3.5 | 0.00 | 0.00 | 0.00 | 26 | 1003.9 |
| 20260510075231 | 72 | 100 | 0.0 | 1.7 | 0.00 | 0.00 | 0.00 | 27 | 1003.9 |
| 20260510075132 | 72 | 119 | 0.0 | 0.0 | 0.00 | 0.00 | 0.00 | 27 | 1003.9 |
| 20260510075021 | 72 | 242 | 0.0 | 0.0 | 0.00 | 0.00 | 0.00 | 27 | 1004.0 |
| 20260510074914 | 72 | 242 | 0.0 | 0.0 | 0.00 | 0.00 | 0.00 | 27 | 1004.0 |
| 20260510074755 | 72 | 232 | 0.0 | 0.0 | 0.00 | 0.00 | 0.00 | 26 | 1004.0 |
| 20260510074642 | 72 | 232 | 0.0 | 0.0 | 0.00 | 0.00 | 0.00 | 26 | 1004.0 |
| 20260510074539 | 72 | 232 | 0.0 | 0.0 | 0.00 | 0.00 | 0.00 | 26 | 1004.0 |
| 20260510074439 | 73 | 232 | 0.0 | 0.0 | 0.00 | 0.00 | 0.00 | 26 | 1004.0 |
| 20260510074336 | 73 | 147 | 0.0 | 0.0 | 0.00 | 0.00 | 0.00 | 25 | 1004.0 |
| 20260510074238 | 73 | 147 | 0.0 | 0.0 | 0.00 | 0.00 | 0.00 | 26 | 1004.0 |
| 20260510074146 | 73 | 147 | 0.0 | 0.0 | 0.00 | 0.00 | 0.00 | 26 | 1004.3 |
| 20260510074045 | 73 | 148 | 0.0 | 0.0 | 0.00 | 0.00 | 0.00 | 26 | 1004.3 |
| 20260510073934 | 73 | 225 | 0.0 | 0.0 | 0.00 | 0.00 | 0.00 | 26 | 1004.3 |
| 20260510073830 | 73 | 267 | 0.0 | 0.0 | 0.00 | 0.00 | 0.00 | 25 | 1004.3 |
| 20260510073732 | 73 | 267 | 0.0 | 0.0 | 0.00 | 0.00 | 0.00 | 25 | 1004.3 |
| 20260510073623 | 73 | 267 | 0.0 | 0.0 | 0.00 | 0.00 | 0.00 | 25 | 1004.3 |
| 20260510073532 | 73 | 267 | 0.0 | 0.0 | 0.00 | 0.00 | 0.00 | 26 | 1004.3 |
| 20260510073415 | 73 | 285 | 0.0 | 0.0 | 0.00 | 0.00 | 0.00 | 26 | 1004.4 |
| 20260510073314 | 73 | 322 | 0.0 | 0.9 | 0.00 | 0.00 | 0.00 | 27 | 1004.4 |
| 20260510073213 | 73 | 322 | 0.0 | 0.9 | 0.00 | 0.00 | 0.00 | 26 | 1004.4 |
| 20260510073110 | 73 | 322 | 0.0 | 0.9 | 0.00 | 0.00 | 0.00 | 26 | 1004.4 |
| 20260510073024 | 74 | 322 | 0.0 | 0.9 | 0.00 | 0.00 | 0.00 | 26 | 1004.5 |
| 20260510072913 | 74 | 322 | 0.0 | 0.9 | 0.00 | 0.00 | 0.00 | 26 | 1004.5 |
| 20260510072811 | 74 | 322 | 0.0 | 0.9 | 0.00 | 0.00 | 0.00 | 24 | 1004.5 |
| 20260510072711 | 74 | 323 | 0.0 | 0.9 | 0.00 | 0.00 | 0.00 | 24 | 1004.9 |
| 20260510072558 | 74 | 323 | 0.0 | 0.9 | 0.00 | 0.00 | 0.00 | 24 | 1004.9 |
| 20260510072457 | 74 | 323 | 0.0 | 0.9 | 0.00 | 0.00 | 0.00 | 24 | 1004.9 |
| 20260510072346 | 74 | 323 | 0.0 | 0.9 | 0.00 | 0.00 | 0.00 | 23 | 1004.9 |
| 20260510072240 | 74 | 231 | 0.0 | 0.9 | 0.00 | 0.00 | 0.00 | 23 | 1005.0 |
| 20260510072140 | 74 | 231 | 0.0 | 0.9 | 0.00 | 0.00 | 0.00 | 22 | 1005.0 |
| 20260510072042 | 74 | 231 | 0.0 | 0.9 | 0.00 | 0.00 | 0.00 | 22 | 1005.0 |
| 20260510071932 | 74 | 231 | 0.0 | 0.9 | 0.00 | 0.00 | 0.00 | 23 | 1005.0 |
| 20260510071833 | 75 | 231 | 0.0 | 0.9 | 0.00 | 0.00 | 0.00 | 22 | 1005.0 |
| 20260510071734 | 75 | 231 | 0.0 | 1.7 | 0.00 | 0.00 | 0.00 | 22 | 1005.0 |
| 20260510071631 | 75 | 231 | 0.0 | 1.7 | 0.00 | 0.00 | 0.00 | 22 | 1005.0 |
| 20260510071518 | 75 | 231 | 0.0 | 1.7 | 0.00 | 0.00 | 0.00 | 22 | 1005.0 |
| 20260510071414 | 75 | 231 | 0.0 | 1.7 | 0.00 | 0.00 | 0.00 | 22 | 1005.0 |
| 20260510071253 | 75 | 225 | 0.0 | 1.7 | 0.00 | 0.00 | 0.00 | 22 | 1005.0 |
| 20260510071222 | 74 | 182 | 0.9 | 3.5 | 0.00 | 0.00 | 0.00 | 22 | 1005.2 |
| 20260510071157 | 75 | 256 | 0.0 | 1.7 | 0.00 | 0.00 | 0.00 | 22 | 1005.4 |
| 20260510071036 | 75 | 252 | 0.9 | 3.5 | 0.00 | 0.00 | 0.00 | 22 | 1005.4 |
| 20260510070936 | 74 | 184 | 0.9 | 3.5 | 0.00 | 0.00 | 0.00 | 22 | 1005.4 |
| 20260510070840 | 74 | 180 | 0.9 | 3.5 | 0.00 | 0.00 | 0.00 | 22 | 1005.4 |
| 20260510070743 | 74 | 186 | 0.9 | 3.5 | 0.00 | 0.00 | 0.00 | 22 | 1005.2 |
| 20260510070639 | 74 | 157 | 0.9 | 3.5 | 0.00 | 0.00 | 0.00 | 22 | 1005.2 |
| 20260510070452 | 74 | 226 | 0.9 | 3.5 | 0.00 | 0.00 | 0.00 | 22 | 1005.2 |
| 20260510070356 | 74 | 150 | 0.9 | 3.5 | 0.00 | 0.00 | 0.00 | 22 | 1005.1 |
| 20260510070255 | 74 | 123 | 0.0 | 3.5 | 0.00 | 0.00 | 0.00 | 23 | 1005.1 |
| 20260510070208 | 74 | 115 | 0.0 | 3.5 | 0.00 | 0.00 | 0.00 | 23 | 1005.1 |
| 20260510070054 | 74 | 184 | 0.0 | 3.5 | 0.00 | 0.00 | 0.00 | 22 | 1005.1 |
| 20260510065932 | 73 | 152 | 0.0 | 3.5 | 0.00 | 0.00 | 0.00 | 24 | 1005.1 |
| 20260510065822 | 73 | 227 | 0.0 | 3.5 | 0.00 | 0.00 | 0.00 | 24 | 1005.0 |
| 20260510065732 | 73 | 188 | 0.0 | 0.9 | 0.00 | 0.00 | 0.00 | 24 | 1005.1 |
| 20260510065630 | 73 | 244 | 0.0 | 0.9 | 0.00 | 0.00 | 0.00 | 24 | 1005.1 |
| 20260510065524 | 73 | 244 | 0.0 | 0.9 | 0.00 | 0.00 | 0.00 | 24 | 1005.0 |
| 20260510065415 | 73 | 245 | 0.0 | 0.9 | 0.00 | 0.00 | 0.00 | 24 | 1005.0 |
| 20260510065316 | 73 | 214 | 0.0 | 0.9 | 0.00 | 0.00 | 0.00 | 24 | 1005.0 |
| 20260510065209 | 73 | 136 | 0.0 | 0.9 | 0.00 | 0.00 | 0.00 | 24 | 1005.0 |
| 20260510065109 | 73 | 105 | 0.0 | 1.7 | 0.00 | 0.00 | 0.00 | 24 | 1005.0 |
| 20260510064959 | 72 | 107 | 0.0 | 1.7 | 0.00 | 0.00 | 0.00 | 24 | 1004.9 |
| 20260510064858 | 72 | 86 | 0.0 | 1.7 | 0.00 | 0.00 | 0.00 | 24 | 1004.9 |
| 20260510064752 | 72 | 147 | 0.0 | 1.7 | 0.00 | 0.00 | 0.00 | 25 | 1004.8 |
| 20260510064651 | 72 | 246 | 0.0 | 1.7 | 0.00 | 0.00 | 0.00 | 26 | 1004.8 |
| 20260510064544 | 72 | 246 | 0.0 | 1.7 | 0.00 | 0.00 | 0.00 | 27 | 1004.8 |
| 20260510064435 | 71 | 264 | 0.0 | 1.7 | 0.00 | 0.00 | 0.00 | 27 | 1004.8 |
| 20260510064335 | 72 | 264 | 0.0 | 1.7 | 0.00 | 0.00 | 0.00 | 27 | 1004.8 |
| 20260510064236 | 71 | 273 | 0.0 | 1.7 | 0.00 | 0.00 | 0.00 | 27 | 1004.7 |
| 20260510064128 | 71 | 279 | 0.0 | 1.7 | 0.00 | 0.00 | 0.00 | 27 | 1004.7 |
| 20260510064028 | 71 | 284 | 0.0 | 0.9 | 0.00 | 0.00 | 0.00 | 27 | 1004.7 |
| 20260510063934 | 72 | 155 | 0.0 | 0.9 | 0.00 | 0.00 | 0.00 | 27 | 1004.7 |
| 20260510063826 | 71 | 155 | 0.0 | 0.9 | 0.00 | 0.00 | 0.00 | 27 | 1004.7 |
| 20260510063723 | 71 | 155 | 0.0 | 0.9 | 0.00 | 0.00 | 0.00 | 26 | 1004.7 |
| 20260510063616 | 71 | 126 | 0.0 | 0.9 | 0.00 | 0.00 | 0.00 | 26 | 1004.7 |
| 20260510063517 | 71 | 125 | 0.0 | 0.9 | 0.00 | 0.00 | 0.00 | 26 | 1004.7 |
| 20260510063414 | 71 | 121 | 0.0 | 0.9 | 0.00 | 0.00 | 0.00 | 27 | 1004.6 |
| 20260510063314 | 71 | 121 | 0.0 | 0.0 | 0.00 | 0.00 | 0.00 | 27 | 1004.6 |
| 20260510063214 | 71 | 121 | 0.0 | 0.0 | 0.00 | 0.00 | 0.00 | 27 | 1004.6 |
| 20260510063114 | 71 | 122 | 0.0 | 0.0 | 0.00 | 0.00 | 0.00 | 27 | 1004.6 |
| 20260510063010 | 71 | 113 | 0.0 | 0.0 | 0.00 | 0.00 | 0.00 | 27 | 1004.6 |
| 20260510062912 | 71 | 111 | 0.0 | 0.0 | 0.00 | 0.00 | 0.00 | 27 | 1004.6 |
| 20260510062808 | 71 | 33 | 0.0 | 0.0 | 0.00 | 0.00 | 0.00 | 27 | 1004.5 |
| 20260510062708 | 71 | 32 | 0.0 | 0.0 | 0.00 | 0.00 | 0.00 | 28 | 1004.4 |
| 20260510062606 | 71 | 32 | 0.0 | 0.9 | 0.00 | 0.00 | 0.00 | 28 | 1004.4 |
| 20260510062514 | 71 | 32 | 0.0 | 0.9 | 0.00 | 0.00 | 0.00 | 28 | 1004.4 |
| 20260510062338 | 71 | 32 | 0.0 | 0.9 | 0.00 | 0.00 | 0.00 | 28 | 1004.4 |
| 20260510062242 | 71 | 32 | 0.0 | 0.9 | 0.00 | 0.00 | 0.00 | 29 | 1004.4 |
| 20260510062142 | 71 | 32 | 0.0 | 0.9 | 0.00 | 0.00 | 0.00 | 26 | 1004.4 |
| 20260510062039 | 71 | 126 | 0.0 | 0.9 | 0.00 | 0.00 | 0.00 | 26 | 1004.4 |
| 20260510061939 | 71 | 126 | 0.0 | 0.9 | 0.00 | 0.00 | 0.00 | 27 | 1004.4 |
| 20260510061838 | 71 | 126 | 0.0 | 0.9 | 0.00 | 0.00 | 0.00 | 27 | 1004.4 |
| 20260510061739 | 71 | 126 | 0.0 | 0.9 | 0.00 | 0.00 | 0.00 | 26 | 1004.4 |
| 20260510061634 | 71 | 127 | 0.0 | 0.9 | 0.00 | 0.00 | 0.00 | 27 | 1004.5 |
| 20260510061532 | 71 | 94 | 0.0 | 0.9 | 0.00 | 0.00 | 0.00 | 27 | 1004.4 |
| 20260510061435 | 71 | 94 | 0.0 | 0.9 | 0.00 | 0.00 | 0.00 | 27 | 1004.4 |
| 20260510061319 | 71 | 94 | 0.0 | 0.9 | 0.00 | 0.00 | 0.00 | 27 | 1004.4 |
| 20260510061224 | 71 | 93 | 0.0 | 0.9 | 0.00 | 0.00 | 0.00 | 27 | 1004.6 |
| 20260510061112 | 71 | 92 | 0.0 | 0.9 | 0.00 | 0.00 | 0.00 | 27 | 1004.6 |
| 20260510061008 | 71 | 92 | 0.0 | 0.9 | 0.00 | 0.00 | 0.00 | 28 | 1004.6 |
| 20260510060905 | 71 | 94 | 0.0 | 0.9 | 0.00 | 0.00 | 0.00 | 27 | 1004.6 |
| 20260510060759 | 71 | 98 | 0.0 | 0.9 | 0.00 | 0.00 | 0.00 | 27 | 1004.6 |
| 20260510060652 | 71 | 105 | 0.0 | 0.9 | 0.00 | 0.00 | 0.00 | 27 | 1004.6 |
| 20260510060616 | 71 | 105 | 0.0 | 0.9 | 0.00 | 0.00 | 0.00 | 27 | 1004.6 |
| 20260510060437 | 71 | 105 | 0.0 | 0.9 | 0.00 | 0.00 | 0.00 | 27 | 1004.6 |
| 20260510060338 | 71 | 105 | 0.0 | 0.9 | 0.00 | 0.00 | 0.00 | 28 | 1004.6 |
| 20260510060255 | 71 | 105 | 0.0 | 0.9 | 0.00 | 0.00 | 0.00 | 28 | 1004.6 |
| 20260510060130 | 71 | 113 | 0.0 | 0.9 | 0.00 | 0.00 | 0.00 | 27 | 1004.6 |
| 20260510060030 | 71 | 113 | 0.0 | 0.0 | 0.00 | 0.00 | 0.00 | 27 | 1004.6 |
| 20260510055916 | 71 | 113 | 0.0 | 0.0 | 0.00 | 0.00 | 0.00 | 27 | 1004.6 |
| 20260510055810 | 71 | 113 | 0.0 | 0.9 | 0.00 | 0.00 | 0.00 | 27 | 1004.6 |
| 20260510055717 | 71 | 113 | 0.0 | 4.3 | 0.00 | 0.00 | 0.00 | 27 | 1004.7 |
| 20260510055611 | 71 | 113 | 0.0 | 4.3 | 0.00 | 0.00 | 0.00 | 27 | 1004.7 |
| 20260510055510 | 71 | 113 | 0.9 | 4.3 | 0.00 | 0.00 | 0.00 | 27 | 1004.7 |
| 20260510055412 | 71 | 113 | 0.9 | 4.3 | 0.00 | 0.00 | 0.00 | 27 | 1004.7 |
| 20260510055238 | 71 | 113 | 0.9 | 4.3 | 0.00 | 0.00 | 0.00 | 27 | 1004.7 |
| 20260510055139 | 72 | 113 | 0.9 | 4.3 | 0.00 | 0.00 | 0.00 | 27 | 1004.7 |
| 20260510055039 | 71 | 113 | 0.9 | 4.3 | 0.00 | 0.00 | 0.00 | 27 | 1004.7 |
| 20260510054939 | 71 | 116 | 0.9 | 4.3 | 0.00 | 0.00 | 0.00 | 27 | 1004.7 |
| 20260510054840 | 71 | 86 | 0.9 | 4.3 | 0.00 | 0.00 | 0.00 | 27 | 1004.7 |
| 20260510054735 | 71 | 67 | 0.9 | 4.3 | 0.00 | 0.00 | 0.00 | 27 | 1004.7 |
| 20260510054635 | 71 | 106 | 0.9 | 4.3 | 0.00 | 0.00 | 0.00 | 27 | 1004.7 |
| 20260510054531 | 71 | 95 | 0.9 | 4.3 | 0.00 | 0.00 | 0.00 | 27 | 1004.7 |
| 20260510054428 | 71 | 101 | 0.9 | 4.3 | 0.00 | 0.00 | 0.00 | 27 | 1004.7 |
| 20260510054317 | 71 | 118 | 0.9 | 4.3 | 0.00 | 0.00 | 0.00 | 27 | 1004.7 |
| 20260510054211 | 72 | 111 | 0.9 | 4.3 | 0.00 | 0.00 | 0.00 | 27 | 1004.4 |
| 20260510054115 | 72 | 85 | 0.9 | 4.3 | 0.00 | 0.00 | 0.00 | 27 | 1004.5 |
| 20260510054014 | 72 | 118 | 0.9 | 4.3 | 0.00 | 0.00 | 0.00 | 27 | 1004.5 |
| 20260510053907 | 72 | 110 | 0.9 | 4.3 | 0.00 | 0.00 | 0.00 | 27 | 1004.5 |
| 20260510053801 | 72 | 83 | 0.9 | 4.3 | 0.00 | 0.00 | 0.00 | 27 | 1004.5 |
| 20260510053655 | 72 | 98 | 0.9 | 3.5 | 0.00 | 0.00 | 0.00 | 27 | 1004.5 |
| 20260510053553 | 72 | 82 | 0.0 | 2.6 | 0.00 | 0.00 | 0.00 | 26 | 1004.5 |
| 20260510053455 | 72 | 92 | 0.0 | 2.6 | 0.00 | 0.00 | 0.00 | 26 | 1004.5 |
| 20260510053358 | 72 | 87 | 0.0 | 2.6 | 0.00 | 0.00 | 0.00 | 26 | 1004.6 |
| 20260510053252 | 73 | 82 | 0.0 | 2.6 | 0.00 | 0.00 | 0.00 | 26 | 1004.6 |
| 20260510053146 | 73 | 95 | 0.0 | 2.6 | 0.00 | 0.00 | 0.00 | 25 | 1004.6 |
| 20260510053105 | 73 | 79 | 0.0 | 1.7 | 0.00 | 0.00 | 0.00 | 25 | 1004.6 |
| 20260510052937 | 73 | 111 | 0.0 | 0.9 | 0.00 | 0.00 | 0.00 | 25 | 1004.6 |
| 20260510052842 | 73 | 100 | 0.0 | 0.9 | 0.00 | 0.00 | 0.00 | 25 | 1004.6 |
| 20260510052737 | 73 | 94 | 0.0 | 2.6 | 0.00 | 0.00 | 0.00 | 25 | 1004.6 |
| 20260510052639 | 73 | 109 | 0.0 | 2.6 | 0.00 | 0.00 | 0.00 | 25 | 1004.5 |
| 20260510052540 | 73 | 97 | 0.0 | 2.6 | 0.00 | 0.00 | 0.00 | 25 | 1004.5 |
| 20260510052438 | 73 | 69 | 0.0 | 3.5 | 0.00 | 0.00 | 0.00 | 25 | 1004.5 |
| 20260510052339 | 73 | 274 | 0.9 | 3.5 | 0.00 | 0.00 | 0.00 | 25 | 1004.5 |
| 20260510052237 | 73 | 273 | 0.9 | 3.5 | 0.00 | 0.00 | 0.00 | 25 | 1004.5 |
| 20260510052143 | 73 | 273 | 0.9 | 4.3 | 0.00 | 0.00 | 0.00 | 24 | 1004.5 |
| 20260510052052 | 73 | 273 | 0.9 | 4.3 | 0.00 | 0.00 | 0.00 | 25 | 1004.5 |
| 20260510051934 | 73 | 273 | 0.9 | 4.3 | 0.00 | 0.00 | 0.00 | 25 | 1004.5 |
| 20260510051836 | 73 | 260 | 0.9 | 4.3 | 0.00 | 0.00 | 0.00 | 25 | 1004.5 |
| 20260510051731 | 73 | 246 | 0.9 | 4.3 | 0.00 | 0.00 | 0.00 | 25 | 1004.5 |
| 20260510051635 | 73 | 243 | 1.7 | 4.3 | 0.00 | 0.00 | 0.00 | 25 | 1004.5 |
| 20260510051533 | 73 | 246 | 1.7 | 4.3 | 0.00 | 0.00 | 0.00 | 25 | 1004.5 |
| 20260510051432 | 73 | 264 | 1.7 | 4.3 | 0.00 | 0.00 | 0.00 | 25 | 1004.5 |
| 20260510051331 | 73 | 268 | 1.7 | 4.3 | 0.00 | 0.00 | 0.00 | 25 | 1004.5 |
| 20260510051225 | 73 | 256 | 1.7 | 4.3 | 0.00 | 0.00 | 0.00 | 25 | 1005.4 |
| 20260510051135 | 73 | 252 | 1.7 | 4.3 | 0.00 | 0.00 | 0.00 | 25 | 1005.4 |
| 20260510051010 | 73 | 292 | 1.7 | 5.2 | 0.00 | 0.00 | 0.00 | 25 | 1005.4 |
| 20260510050912 | 74 | 286 | 1.7 | 5.2 | 0.00 | 0.00 | 0.00 | 25 | 1005.5 |
| 20260510050813 | 74 | 292 | 1.7 | 5.2 | 0.00 | 0.00 | 0.00 | 24 | 1005.5 |
| 20260510050715 | 74 | 265 | 2.6 | 5.2 | 0.00 | 0.00 | 0.00 | 24 | 1005.5 |
| 20260510050614 | 74 | 279 | 1.7 | 5.2 | 0.00 | 0.00 | 0.00 | 24 | 1005.5 |
| 20260510050509 | 74 | 280 | 1.7 | 5.2 | 0.00 | 0.00 | 0.00 | 24 | 1005.5 |
| 20260510050410 | 73 | 263 | 1.7 | 5.2 | 0.00 | 0.00 | 0.00 | 24 | 1005.4 |
| 20260510050310 | 73 | 265 | 1.7 | 5.2 | 0.00 | 0.00 | 0.00 | 24 | 1005.4 |
| 20260510050212 | 73 | 262 | 1.7 | 5.2 | 0.00 | 0.00 | 0.00 | 24 | 1005.4 |
| 20260510050111 | 73 | 271 | 1.7 | 5.2 | 0.00 | 0.00 | 0.00 | 24 | 1005.4 |
| 20260510045949 | 73 | 264 | 1.7 | 5.2 | 0.00 | 0.00 | 0.00 | 24 | 1005.4 |
| 20260510045851 | 73 | 290 | 0.9 | 5.2 | 0.00 | 0.00 | 0.00 | 25 | 1005.4 |
| 20260510045739 | 73 | 261 | 0.9 | 5.2 | 0.00 | 0.00 | 0.00 | 25 | 1005.0 |
| 20260510045637 | 73 | 265 | 0.9 | 3.5 | 0.00 | 0.00 | 0.00 | 25 | 1005.0 |
| 20260510045539 | 73 | 260 | 0.9 | 3.5 | 0.00 | 0.00 | 0.00 | 25 | 1005.0 |
| 20260510045509 | 73 | 257 | 1.7 | 3.5 | 0.00 | 0.00 | 0.00 | 25 | 1005.1 |
| 20260510045342 | 74 | 273 | 1.7 | 3.5 | 0.00 | 0.00 | 0.00 | 25 | 1005.1 |
| 20260510045235 | 74 | 274 | 1.7 | 3.5 | 0.00 | 0.00 | 0.00 | 24 | 1005.1 |
| 20260510045119 | 74 | 264 | 1.7 | 4.3 | 0.00 | 0.00 | 0.00 | 24 | 1005.1 |
| 20260510045028 | 74 | 294 | 1.7 | 4.3 | 0.00 | 0.00 | 0.00 | 24 | 1005.2 |
| 20260510044920 | 74 | 282 | 1.7 | 4.3 | 0.00 | 0.00 | 0.00 | 24 | 1005.2 |
| 20260510044827 | 74 | 294 | 0.9 | 4.3 | 0.00 | 0.00 | 0.00 | 24 | 1005.2 |
| 20260510044710 | 75 | 304 | 0.9 | 4.3 | 0.00 | 0.00 | 0.00 | 23 | 1005.4 |
| 20260510044608 | 75 | 296 | 0.9 | 4.3 | 0.00 | 0.00 | 0.00 | 23 | 1005.4 |
| 20260510044508 | 75 | 306 | 0.9 | 4.3 | 0.00 | 0.00 | 0.00 | 22 | 1005.5 |
| 20260510044410 | 75 | 285 | 0.9 | 4.3 | 0.00 | 0.00 | 0.00 | 22 | 1005.5 |
| 20260510044309 | 76 | 273 | 0.9 | 4.3 | 0.00 | 0.00 | 0.00 | 22 | 1005.6 |
| 20260510044215 | 76 | 281 | 0.9 | 4.3 | 0.00 | 0.00 | 0.00 | 22 | 1005.4 |
| 20260510044112 | 76 | 275 | 0.9 | 3.5 | 0.00 | 0.00 | 0.00 | 22 | 1005.4 |
| 20260510044010 | 76 | 279 | 0.9 | 4.3 | 0.00 | 0.00 | 0.00 | 22 | 1005.5 |
| 20260510043912 | 76 | 266 | 0.9 | 4.3 | 0.00 | 0.00 | 0.00 | 21 | 1005.5 |
| 20260510043805 | 76 | 271 | 0.9 | 4.3 | 0.00 | 0.00 | 0.00 | 21 | 1005.5 |
| 20260510043702 | 76 | 285 | 0.9 | 4.3 | 0.00 | 0.00 | 0.00 | 21 | 1005.5 |
| 20260510043603 | 76 | 285 | 0.9 | 4.3 | 0.00 | 0.00 | 0.00 | 21 | 1005.5 |
| 20260510043503 | 76 | 267 | 0.9 | 4.3 | 0.00 | 0.00 | 0.00 | 21 | 1005.6 |
| 20260510043358 | 76 | 252 | 0.9 | 4.3 | 0.00 | 0.00 | 0.00 | 21 | 1005.6 |
| 20260510043240 | 77 | 263 | 0.9 | 4.3 | 0.00 | 0.00 | 0.00 | 21 | 1005.6 |
| 20260510043135 | 77 | 262 | 0.9 | 4.3 | 0.00 | 0.00 | 0.00 | 21 | 1005.6 |
| 20260510043039 | 77 | 266 | 0.9 | 4.3 | 0.00 | 0.00 | 0.00 | 21 | 1005.6 |
| 20260510042938 | 77 | 279 | 0.9 | 4.3 | 0.00 | 0.00 | 0.00 | 21 | 1005.6 |
| 20260510042837 | 77 | 255 | 0.9 | 4.3 | 0.00 | 0.00 | 0.00 | 20 | 1005.7 |
| 20260510042737 | 77 | 271 | 1.7 | 4.3 | 0.00 | 0.00 | 0.00 | 20 | 1005.7 |
| 20260510042635 | 77 | 255 | 1.7 | 4.3 | 0.00 | 0.00 | 0.00 | 20 | 1005.5 |
| 20260510042536 | 78 | 261 | 1.7 | 5.2 | 0.00 | 0.00 | 0.00 | 20 | 1005.6 |
| 20260510042442 | 78 | 284 | 1.7 | 5.2 | 0.00 | 0.00 | 0.00 | 20 | 1005.6 |
| 20260510042337 | 78 | 235 | 2.6 | 5.2 | 0.00 | 0.00 | 0.00 | 19 | 1005.6 |
| 20260510042237 | 78 | 244 | 2.6 | 6.1 | 0.00 | 0.00 | 0.00 | 19 | 1005.6 |
| 20260510042136 | 78 | 265 | 2.6 | 6.1 | 0.00 | 0.00 | 0.00 | 19 | 1005.7 |
| 20260510042033 | 78 | 215 | 2.6 | 6.1 | 0.00 | 0.00 | 0.00 | 19 | 1005.7 |
| 20260510041927 | 78 | 242 | 2.6 | 6.1 | 0.00 | 0.00 | 0.00 | 19 | 1005.7 |
| 20260510041826 | 78 | 224 | 2.6 | 6.1 | 0.00 | 0.00 | 0.00 | 19 | 1005.7 |
| 20260510041713 | 78 | 251 | 2.6 | 6.1 | 0.00 | 0.00 | 0.00 | 19 | 1005.8 |
| 20260510041608 | 78 | 256 | 2.6 | 6.1 | 0.00 | 0.00 | 0.00 | 19 | 1005.8 |
| 20260510041508 | 79 | 234 | 2.6 | 6.1 | 0.00 | 0.00 | 0.00 | 19 | 1005.8 |
| 20260510041408 | 79 | 259 | 2.6 | 6.1 | 0.00 | 0.00 | 0.00 | 18 | 1005.8 |
| 20260510041312 | 79 | 246 | 2.6 | 6.1 | 0.00 | 0.00 | 0.00 | 18 | 1005.8 |
| 20260510041158 | 79 | 244 | 3.5 | 6.1 | 0.00 | 0.00 | 0.00 | 18 | 1006.1 |
| 20260510041055 | 79 | 253 | 3.5 | 6.1 | 0.00 | 0.00 | 0.00 | 18 | 1006.1 |
| 20260510040952 | 79 | 232 | 3.5 | 6.1 | 0.00 | 0.00 | 0.00 | 18 | 1006.1 |
| 20260510040851 | 79 | 264 | 3.5 | 7.0 | 0.00 | 0.00 | 0.00 | 18 | 1006.1 |
| 20260510040753 | 79 | 232 | 3.5 | 7.0 | 0.00 | 0.00 | 0.00 | 18 | 1006.1 |
| 20260510040646 | 79 | 279 | 3.5 | 7.0 | 0.00 | 0.00 | 0.00 | 18 | 1006.1 |
| 20260510040546 | 79 | 265 | 3.5 | 7.8 | 0.00 | 0.00 | 0.00 | 18 | 1006.1 |
| 20260510040443 | 79 | 244 | 3.5 | 9.6 | 0.00 | 0.00 | 0.00 | 18 | 1006.1 |
| 20260510040336 | 79 | 256 | 3.5 | 9.6 | 0.00 | 0.00 | 0.00 | 18 | 1006.1 |
| 20260510040233 | 79 | 244 | 3.5 | 9.6 | 0.00 | 0.00 | 0.00 | 18 | 1006.1 |
| 20260510040135 | 79 | 244 | 3.5 | 9.6 | 0.00 | 0.00 | 0.00 | 18 | 1006.1 |
| 20260510040033 | 79 | 246 | 3.5 | 9.6 | 0.00 | 0.00 | 0.00 | 18 | 1006.1 |
| 20260510035933 | 79 | 241 | 4.3 | 10.4 | 0.00 | 0.00 | 0.00 | 18 | 1006.1 |
| 20260510035838 | 79 | 242 | 4.3 | 10.4 | 0.00 | 0.00 | 0.00 | 18 | 1006.1 |
| 20260510035734 | 79 | 252 | 4.3 | 10.4 | 0.00 | 0.00 | 0.00 | 18 | 1006.1 |
| 20260510035637 | 79 | 265 | 4.3 | 10.4 | 0.00 | 0.00 | 0.00 | 18 | 1005.9 |
| 20260510035537 | 79 | 254 | 4.3 | 10.4 | 0.00 | 0.00 | 0.00 | 18 | 1005.9 |
| 20260510035430 | 79 | 265 | 4.3 | 10.4 | 0.00 | 0.00 | 0.00 | 18 | 1005.9 |
| 20260510035324 | 79 | 274 | 4.3 | 10.4 | 0.00 | 0.00 | 0.00 | 18 | 1005.9 |
| 20260510035222 | 79 | 270 | 4.3 | 10.4 | 0.00 | 0.00 | 0.00 | 18 | 1005.9 |
| 20260510035127 | 79 | 236 | 4.3 | 10.4 | 0.00 | 0.00 | 0.00 | 18 | 1006.0 |
| 20260510035023 | 79 | 229 | 3.5 | 10.4 | 0.00 | 0.00 | 0.00 | 18 | 1006.0 |
| 20260510034923 | 79 | 199 | 3.5 | 9.6 | 0.00 | 0.00 | 0.00 | 18 | 1006.0 |
| 20260510034816 | 79 | 246 | 3.5 | 9.6 | 0.00 | 0.00 | 0.00 | 18 | 1006.0 |
| 20260510034716 | 79 | 273 | 3.5 | 9.6 | 0.00 | 0.00 | 0.00 | 18 | 1006.0 |
| 20260510034617 | 80 | 244 | 3.5 | 9.6 | 0.00 | 0.00 | 0.00 | 18 | 1006.1 |
| 20260510034516 | 80 | 224 | 3.5 | 9.6 | 0.00 | 0.00 | 0.00 | 18 | 1006.1 |
| 20260510034415 | 80 | 248 | 3.5 | 9.6 | 0.00 | 0.00 | 0.00 | 18 | 1006.1 |
| 20260510034310 | 80 | 236 | 3.5 | 9.6 | 0.00 | 0.00 | 0.00 | 17 | 1006.1 |
| 20260510034216 | 80 | 240 | 3.5 | 7.8 | 0.00 | 0.00 | 0.00 | 17 | 1005.6 |
| 20260510034112 | 80 | 246 | 3.5 | 7.8 | 0.00 | 0.00 | 0.00 | 17 | 1005.6 |
| 20260510034011 | 80 | 213 | 4.3 | 7.8 | 0.00 | 0.00 | 0.00 | 17 | 1005.7 |
| 20260510033907 | 80 | 252 | 4.3 | 9.6 | 0.00 | 0.00 | 0.00 | 17 | 1005.7 |
| 20260510033811 | 81 | 243 | 4.3 | 9.6 | 0.00 | 0.00 | 0.00 | 16 | 1005.8 |
| 20260510033710 | 81 | 215 | 4.3 | 9.6 | 0.00 | 0.00 | 0.00 | 16 | 1005.8 |
| 20260510033607 | 81 | 252 | 4.3 | 9.6 | 0.00 | 0.00 | 0.00 | 16 | 1005.8 |
| 20260510033508 | 81 | 234 | 4.3 | 9.6 | 0.00 | 0.00 | 0.00 | 16 | 1005.9 |
| 20260510033358 | 82 | 198 | 5.2 | 9.6 | 0.00 | 0.00 | 0.00 | 16 | 1005.9 |
| 20260510033305 | 82 | 84 | 5.2 | 9.6 | 0.00 | 0.00 | 0.00 | 15 | 1006.0 |
| 20260510033202 | 82 | 182 | 5.2 | 9.6 | 0.00 | 0.00 | 0.00 | 15 | 1006.0 |
| 20260510033056 | 82 | 261 | 6.1 | 12.2 | 0.00 | 0.00 | 0.00 | 15 | 1006.0 |
| 20260510033003 | 82 | 207 | 6.1 | 12.2 | 0.00 | 0.00 | 0.00 | 15 | 1006.0 |
| 20260510032852 | 82 | 194 | 6.1 | 12.2 | 0.00 | 0.00 | 0.00 | 15 | 1006.1 |
| 20260510032748 | 83 | 205 | 6.1 | 12.2 | 0.00 | 0.00 | 0.00 | 15 | 1006.1 |
| 20260510032641 | 83 | 218 | 6.1 | 12.2 | 0.00 | 0.00 | 0.00 | 14 | 1005.9 |
| 20260510032534 | 83 | 256 | 6.1 | 12.2 | 0.00 | 0.00 | 0.00 | 14 | 1005.9 |
| 20260510032438 | 83 | 219 | 6.1 | 12.2 | 0.00 | 0.00 | 0.00 | 14 | 1005.9 |
| 20260510032331 | 82 | 225 | 6.1 | 12.2 | 0.00 | 0.00 | 0.00 | 15 | 1005.9 |
| 20260510032233 | 82 | 222 | 6.1 | 12.2 | 0.00 | 0.00 | 0.00 | 15 | 1005.8 |
| 20260510032134 | 82 | 262 | 6.1 | 12.2 | 0.00 | 0.00 | 0.00 | 15 | 1005.8 |
| 20260510032036 | 82 | 190 | 6.1 | 11.3 | 0.00 | 0.00 | 0.00 | 15 | 1005.8 |
| 20260510031935 | 82 | 206 | 5.2 | 11.3 | 0.00 | 0.00 | 0.00 | 15 | 1005.8 |
| 20260510031820 | 82 | 262 | 5.2 | 10.4 | 0.00 | 0.00 | 0.00 | 15 | 1005.8 |
| 20260510031713 | 82 | 208 | 5.2 | 10.4 | 0.00 | 0.00 | 0.00 | 15 | 1005.8 |
| 20260510031624 | 82 | 252 | 5.2 | 10.4 | 0.00 | 0.00 | 0.00 | 15 | 1005.8 |
| 20260510031520 | 82 | 245 | 5.2 | 10.4 | 0.00 | 0.00 | 0.00 | 15 | 1005.8 |
| 20260510031411 | 82 | 215 | 5.2 | 10.4 | 0.00 | 0.00 | 0.00 | 15 | 1005.8 |
| 20260510031307 | 82 | 211 | 5.2 | 10.4 | 0.00 | 0.00 | 0.00 | 15 | 1005.8 |
| 20260510031209 | 82 | 192 | 5.2 | 10.4 | 0.00 | 0.00 | 0.00 | 15 | 1006.2 |
| 20260510031101 | 82 | 205 | 5.2 | 10.4 | 0.00 | 0.00 | 0.00 | 15 | 1006.2 |
| 20260510031008 | 82 | 209 | 5.2 | 10.4 | 0.00 | 0.00 | 0.00 | 15 | 1006.2 |
| 20260510030904 | 82 | 249 | 5.2 | 10.4 | 0.00 | 0.00 | 0.00 | 15 | 1006.2 |
| 20260510030757 | 82 | 213 | 4.3 | 10.4 | 0.00 | 0.00 | 0.00 | 15 | 1006.1 |
| 20260510030652 | 82 | 202 | 4.3 | 10.4 | 0.00 | 0.00 | 0.00 | 15 | 1006.1 |
| 20260510030557 | 82 | 213 | 4.3 | 8.7 | 0.00 | 0.00 | 0.00 | 15 | 1006.1 |
| 20260510030454 | 82 | 244 | 4.3 | 8.7 | 0.00 | 0.00 | 0.00 | 16 | 1006.1 |
| 20260510030351 | 82 | 238 | 3.5 | 8.7 | 0.00 | 0.00 | 0.00 | 16 | 1006.1 |
| 20260510030242 | 82 | 252 | 3.5 | 7.8 | 0.00 | 0.00 | 0.00 | 16 | 1006.1 |
| 20260510030142 | 82 | 237 | 3.5 | 7.8 | 0.00 | 0.00 | 0.00 | 16 | 1006.1 |
| 20260510030043 | 82 | 193 | 3.5 | 7.8 | 0.00 | 0.00 | 0.00 | 16 | 1006.1 |
| 20260510025940 | 82 | 236 | 3.5 | 7.8 | 0.00 | 0.00 | 0.00 | 16 | 1006.1 |
| 20260510025846 | 82 | 244 | 4.3 | 7.8 | 0.00 | 0.00 | 0.00 | 16 | 1006.1 |
| 20260510025741 | 82 | 212 | 4.3 | 7.8 | 0.00 | 0.00 | 0.00 | 16 | 1006.1 |
| 20260510025637 | 82 | 221 | 4.3 | 7.8 | 0.00 | 0.00 | 0.00 | 16 | 1005.9 |
| 20260510025537 | 82 | 216 | 4.3 | 7.8 | 0.00 | 0.00 | 0.00 | 15 | 1005.9 |
| 20260510025438 | 82 | 209 | 4.3 | 7.8 | 0.00 | 0.00 | 0.00 | 15 | 1005.9 |
| 20260510025333 | 82 | 182 | 3.5 | 7.8 | 0.00 | 0.00 | 0.00 | 15 | 1005.9 |
| 20260510025236 | 82 | 224 | 3.5 | 7.8 | 0.00 | 0.00 | 0.00 | 15 | 1005.9 |
| 20260510025138 | 82 | 231 | 3.5 | 7.8 | 0.00 | 0.00 | 0.00 | 15 | 1005.9 |
| 20260510025043 | 82 | 211 | 3.5 | 7.8 | 0.00 | 0.00 | 0.00 | 15 | 1005.9 |
| 20260510024931 | 82 | 174 | 2.6 | 7.8 | 0.00 | 0.00 | 0.00 | 15 | 1006.0 |
| 20260510024834 | 83 | 219 | 2.6 | 7.8 | 0.00 | 0.00 | 0.00 | 15 | 1006.0 |
| 20260510024738 | 83 | 209 | 1.7 | 7.8 | 0.00 | 0.00 | 0.00 | 15 | 1006.0 |
| 20260510024634 | 83 | 174 | 1.7 | 5.2 | 0.00 | 0.00 | 0.00 | 16 | 1006.1 |
| 20260510024526 | 83 | 196 | 0.9 | 5.2 | 0.00 | 0.00 | 0.00 | 15 | 1006.0 |
| 20260510024427 | 83 | 219 | 0.9 | 5.2 | 0.00 | 0.00 | 0.00 | 15 | 1006.0 |
| 20260510024322 | 83 | 171 | 0.9 | 5.2 | 0.00 | 0.00 | 0.00 | 15 | 1006.0 |
| 20260510024232 | 83 | 184 | 0.9 | 4.3 | 0.00 | 0.00 | 0.00 | 15 | 1005.8 |
| 20260510024131 | 83 | 180 | 0.9 | 4.3 | 0.00 | 0.00 | 0.00 | 15 | 1005.8 |
| 20260510024022 | 83 | 101 | 0.0 | 3.5 | 0.00 | 0.00 | 0.00 | 15 | 1005.8 |
| 20260510023912 | 83 | 161 | 0.9 | 3.5 | 0.00 | 0.00 | 0.00 | 15 | 1005.8 |
| 20260510023814 | 83 | 175 | 0.9 | 4.3 | 0.00 | 0.00 | 0.00 | 15 | 1005.8 |
| 20260510023711 | 83 | 132 | 0.9 | 4.3 | 0.00 | 0.00 | 0.00 | 15 | 1005.8 |
| 20260510023609 | 83 | 161 | 0.9 | 4.3 | 0.00 | 0.00 | 0.00 | 15 | 1005.8 |
| 20260510023510 | 83 | 155 | 0.9 | 4.3 | 0.00 | 0.00 | 0.00 | 15 | 1005.8 |
| 20260510023414 | 83 | 130 | 0.0 | 4.3 | 0.00 | 0.00 | 0.00 | 15 | 1005.8 |
| 20260510023306 | 83 | 149 | 0.0 | 4.3 | 0.00 | 0.00 | 0.00 | 15 | 1005.8 |
| 20260510023201 | 83 | 130 | 0.0 | 4.3 | 0.00 | 0.00 | 0.00 | 15 | 1005.9 |
| 20260510023105 | 83 | 113 | 0.0 | 4.3 | 0.00 | 0.00 | 0.00 | 16 | 1005.9 |
| 20260510022947 | 83 | 140 | 0.0 | 4.3 | 0.00 | 0.00 | 0.00 | 16 | 1005.9 |
| 20260510022844 | 83 | 164 | 0.0 | 4.3 | 0.00 | 0.00 | 0.00 | 15 | 1005.9 |
| 20260510022742 | 83 | 108 | 0.0 | 2.6 | 0.00 | 0.00 | 0.00 | 15 | 1005.9 |
| 20260510022646 | 84 | 197 | 0.0 | 2.6 | 0.00 | 0.00 | 0.00 | 15 | 1005.6 |
| 20260510022539 | 84 | 113 | 0.0 | 4.3 | 0.00 | 0.00 | 0.00 | 16 | 1005.6 |
| 20260510022437 | 84 | 109 | 0.0 | 4.3 | 0.00 | 0.00 | 0.00 | 16 | 1005.6 |
| 20260510022337 | 84 | 117 | 0.9 | 4.3 | 0.00 | 0.00 | 0.00 | 15 | 1005.6 |
| 20260510022242 | 84 | 124 | 0.9 | 4.3 | 0.00 | 0.00 | 0.00 | 15 | 1005.7 |
| 20260510022142 | 84 | 149 | 0.0 | 4.3 | 0.00 | 0.00 | 0.00 | 15 | 1005.7 |
| 20260510022031 | 84 | 133 | 0.9 | 4.3 | 0.00 | 0.00 | 0.00 | 15 | 1005.7 |
| 20260510021938 | 84 | 132 | 0.9 | 4.3 | 0.00 | 0.00 | 0.00 | 15 | 1005.7 |
| 20260510021832 | 84 | 156 | 0.9 | 4.3 | 0.00 | 0.00 | 0.00 | 15 | 1005.7 |
| 20260510021728 | 85 | 160 | 0.9 | 4.3 | 0.00 | 0.00 | 0.00 | 15 | 1005.8 |
| 20260510021621 | 85 | 151 | 0.9 | 3.5 | 0.00 | 0.00 | 0.00 | 15 | 1005.8 |
| 20260510021514 | 85 | 113 | 0.9 | 3.5 | 0.00 | 0.00 | 0.00 | 15 | 1005.8 |
| 20260510021417 | 85 | 96 | 0.0 | 3.5 | 0.00 | 0.00 | 0.00 | 15 | 1005.8 |
| 20260510021310 | 85 | 173 | 0.0 | 3.5 | 0.00 | 0.00 | 0.00 | 15 | 1005.8 |
| 20260510021207 | 85 | 175 | 0.0 | 3.5 | 0.00 | 0.00 | 0.00 | 15 | 1006.2 |
| 20260510021055 | 85 | 113 | 0.0 | 3.5 | 0.00 | 0.00 | 0.00 | 15 | 1006.4 |
| 20260510020954 | 85 | 193 | 0.0 | 3.5 | 0.00 | 0.00 | 0.00 | 15 | 1006.4 |
| 20260510020853 | 85 | 144 | 0.0 | 1.7 | 0.00 | 0.00 | 0.00 | 15 | 1006.4 |
| 20260510020736 | 86 | 115 | 0.0 | 1.7 | 0.00 | 0.00 | 0.00 | 15 | 1006.4 |
| 20260510020637 | 86 | 118 | 0.0 | 1.7 | 0.00 | 0.00 | 0.00 | 15 | 1006.4 |
| 20260510020530 | 86 | 97 | 0.0 | 5.2 | 0.00 | 0.00 | 0.00 | 15 | 1006.5 |
| 20260510020428 | 86 | 148 | 0.0 | 5.2 | 0.00 | 0.00 | 0.00 | 15 | 1006.5 |
| 20260510020321 | 86 | 150 | 0.9 | 5.2 | 0.00 | 0.00 | 0.00 | 14 | 1006.6 |
| 20260510020221 | 87 | 131 | 0.9 | 5.2 | 0.00 | 0.00 | 0.00 | 15 | 1006.6 |
| 20260510020115 | 87 | 103 | 0.9 | 5.2 | 0.00 | 0.00 | 0.00 | 14 | 1006.6 |
| 20260510020013 | 87 | 186 | 1.7 | 6.1 | 0.00 | 0.00 | 0.00 | 14 | 1006.7 |
| 20260510015917 | 87 | 188 | 1.7 | 6.1 | 0.00 | 0.00 | 0.00 | 14 | 1006.7 |
| 20260510015810 | 87 | 166 | 1.7 | 6.1 | 0.00 | 0.00 | 0.00 | 14 | 1006.7 |
| 20260510015746 | 87 | 165 | 2.6 | 7.0 | 0.00 | 0.00 | 0.00 | 13 | 1006.6 |
| 20260510015615 | 87 | 136 | 2.6 | 7.0 | 0.00 | 0.00 | 0.00 | 13 | 1006.7 |
| 20260510015509 | 87 | 143 | 2.6 | 7.0 | 0.00 | 0.00 | 0.00 | 13 | 1006.7 |
| 20260510015409 | 88 | 171 | 2.6 | 7.0 | 0.00 | 0.00 | 0.00 | 13 | 1006.7 |
| 20260510015308 | 88 | 150 | 2.6 | 7.0 | 0.00 | 0.00 | 0.00 | 13 | 1006.7 |
| 20260510015209 | 88 | 180 | 2.6 | 7.0 | 0.00 | 0.00 | 0.00 | 13 | 1006.7 |
| 20260510015106 | 88 | 207 | 2.6 | 7.0 | 0.00 | 0.00 | 0.00 | 13 | 1006.7 |
| 20260510015013 | 88 | 202 | 1.7 | 7.0 | 0.00 | 0.00 | 0.00 | 13 | 1006.8 |
| 20260510014901 | 88 | 180 | 1.7 | 7.0 | 0.00 | 0.00 | 0.00 | 13 | 1006.8 |
| 20260510014751 | 88 | 180 | 1.7 | 7.0 | 0.00 | 0.00 | 0.00 | 13 | 1006.8 |
| 20260510014648 | 88 | 171 | 0.9 | 7.0 | 0.00 | 0.00 | 0.00 | 13 | 1006.8 |
| 20260510014549 | 88 | 168 | 0.9 | 7.0 | 0.00 | 0.00 | 0.00 | 13 | 1006.8 |
| 20260510014442 | 88 | 98 | 0.9 | 7.0 | 0.00 | 0.00 | 0.00 | 13 | 1006.8 |
| 20260510014337 | 88 | 193 | 0.9 | 7.0 | 0.00 | 0.00 | 0.00 | 13 | 1006.8 |
| 20260510014239 | 88 | 173 | 0.9 | 5.2 | 0.00 | 0.00 | 0.00 | 13 | 1006.8 |
| 20260510014144 | 88 | 146 | 1.7 | 6.1 | 0.00 | 0.00 | 0.00 | 13 | 1006.5 |
| 20260510014026 | 88 | 140 | 1.7 | 6.1 | 0.00 | 0.00 | 0.00 | 13 | 1006.5 |
| 20260510013928 | 89 | 120 | 1.7 | 6.1 | 0.00 | 0.00 | 0.00 | 13 | 1006.5 |
| 20260510013830 | 89 | 179 | 2.6 | 6.1 | 0.00 | 0.00 | 0.00 | 13 | 1006.6 |
| 20260510013719 | 89 | 210 | 2.6 | 6.1 | 0.00 | 0.00 | 0.00 | 13 | 1006.6 |
| 20260510013616 | 89 | 223 | 2.6 | 6.1 | 0.00 | 0.00 | 0.00 | 13 | 1006.6 |
| 20260510013521 | 89 | 203 | 2.6 | 6.1 | 0.00 | 0.00 | 0.00 | 13 | 1006.6 |
| 20260510013416 | 89 | 191 | 2.6 | 6.1 | 0.00 | 0.00 | 0.00 | 13 | 1006.6 |
| 20260510013315 | 89 | 64 | 2.6 | 6.1 | 0.00 | 0.00 | 0.00 | 13 | 1006.7 |
| 20260510013211 | 90 | 119 | 1.7 | 5.2 | 0.00 | 0.00 | 0.00 | 13 | 1006.7 |
| 20260510013106 | 90 | 129 | 1.7 | 6.1 | 0.00 | 0.00 | 0.00 | 13 | 1006.8 |
| 20260510013007 | 90 | 123 | 2.6 | 6.1 | 0.00 | 0.00 | 0.00 | 13 | 1006.8 |
| 20260510012912 | 90 | 186 | 1.7 | 6.1 | 0.00 | 0.00 | 0.00 | 13 | 1006.8 |
| 20260510012808 | 90 | 196 | 1.7 | 6.1 | 0.00 | 0.00 | 0.00 | 13 | 1006.8 |
| 20260510012706 | 90 | 191 | 1.7 | 6.1 | 0.00 | 0.00 | 0.00 | 13 | 1006.6 |
| 20260510012608 | 90 | 189 | 1.7 | 6.1 | 0.00 | 0.00 | 0.00 | 13 | 1006.6 |
| 20260510012501 | 90 | 210 | 1.7 | 6.1 | 0.00 | 0.00 | 0.00 | 13 | 1006.6 |
| 20260510012355 | 90 | 215 | 1.7 | 6.1 | 0.00 | 0.00 | 0.00 | 13 | 1006.6 |
| 20260510012257 | 91 | 158 | 1.7 | 6.1 | 0.00 | 0.00 | 0.00 | 13 | 1006.7 |
| 20260510012152 | 91 | 190 | 1.7 | 6.1 | 0.00 | 0.00 | 0.00 | 13 | 1006.7 |
| 20260510012050 | 91 | 202 | 1.7 | 6.1 | 0.00 | 0.00 | 0.00 | 13 | 1006.7 |
| 20260510011949 | 91 | 137 | 1.7 | 5.2 | 0.00 | 0.00 | 0.00 | 13 | 1006.7 |
| 20260510011850 | 91 | 161 | 0.9 | 5.2 | 0.00 | 0.00 | 0.00 | 13 | 1006.7 |
| 20260510011819 | 91 | 196 | 0.9 | 5.2 | 0.00 | 0.00 | 0.00 | 13 | 1006.7 |
| 20260510011639 | 91 | 84 | 0.9 | 5.2 | 0.00 | 0.00 | 0.00 | 13 | 1006.8 |
| 20260510011537 | 91 | 132 | 0.9 | 4.3 | 0.00 | 0.00 | 0.00 | 13 | 1006.8 |
| 20260510011441 | 91 | 149 | 0.9 | 4.3 | 0.00 | 0.00 | 0.00 | 13 | 1006.8 |
| 20260510011342 | 92 | 123 | 1.7 | 4.3 | 0.00 | 0.00 | 0.00 | 13 | 1006.8 |
| 20260510011234 | 92 | 88 | 1.7 | 4.3 | 0.00 | 0.00 | 0.00 | 13 | 1006.8 |
| 20260510011139 | 92 | 198 | 1.7 | 5.2 | 0.00 | 0.00 | 0.00 | 13 | 1007.5 |
| 20260510011025 | 92 | 206 | 1.7 | 6.1 | 0.00 | 0.00 | 0.00 | 13 | 1007.5 |
| 20260510010932 | 92 | 143 | 1.7 | 6.1 | 0.00 | 0.00 | 0.00 | 13 | 1007.5 |
| 20260510010820 | 92 | 144 | 1.7 | 6.1 | 0.00 | 0.00 | 0.00 | 13 | 1007.5 |
| 20260510010720 | 92 | 143 | 1.7 | 6.1 | 0.00 | 0.00 | 0.00 | 13 | 1007.5 |
| 20260510010610 | 92 | 155 | 2.6 | 6.1 | 0.00 | 0.00 | 0.00 | 13 | 1007.5 |
| 20260510010413 | 92 | 156 | 1.7 | 6.1 | 0.00 | 0.00 | 0.00 | 12 | 1007.5 |
| 20260510010306 | 92 | 113 | 1.7 | 6.1 | 0.00 | 0.00 | 0.00 | 12 | 1007.6 |
| 20260510010200 | 92 | 205 | 1.7 | 6.1 | 0.00 | 0.00 | 0.00 | 12 | 1007.6 |
| 20260510010058 | 92 | 162 | 1.7 | 5.2 | 0.00 | 0.00 | 0.00 | 12 | 1007.6 |
| 20260510010001 | 92 | 178 | 1.7 | 5.2 | 0.00 | 0.00 | 0.00 | 12 | 1007.7 |
| 20260510005858 | 93 | 147 | 1.7 | 5.2 | 0.00 | 0.00 | 0.00 | 12 | 1007.7 |
| 20260510005744 | 93 | 116 | 1.7 | 5.2 | 0.00 | 0.00 | 0.00 | 12 | 1007.7 |
| 20260510005640 | 93 | 162 | 1.7 | 5.2 | 0.00 | 0.00 | 0.00 | 12 | 1007.7 |
| 20260510005536 | 93 | 148 | 1.7 | 4.3 | 0.00 | 0.00 | 0.00 | 12 | 1007.7 |
| 20260510005446 | 93 | 128 | 1.7 | 4.3 | 0.00 | 0.00 | 0.00 | 12 | 1007.7 |
| 20260510005335 | 93 | 125 | 1.7 | 4.3 | 0.00 | 0.00 | 0.00 | 12 | 1007.8 |
| 20260510005233 | 93 | 66 | 1.7 | 4.3 | 0.00 | 0.00 | 0.00 | 11 | 1007.8 |
| 20260510005132 | 93 | 117 | 1.7 | 4.3 | 0.00 | 0.00 | 0.00 | 11 | 1007.8 |
| 20260510005022 | 93 | 139 | 1.7 | 4.3 | 0.00 | 0.00 | 0.00 | 11 | 1007.8 |
| 20260510004926 | 93 | 157 | 1.7 | 4.3 | 0.00 | 0.00 | 0.00 | 11 | 1007.8 |
| 20260510004811 | 93 | 111 | 1.7 | 4.3 | 0.00 | 0.00 | 0.00 | 12 | 1007.8 |
| 20260510004707 | 93 | 120 | 1.7 | 5.2 | 0.00 | 0.00 | 0.00 | 12 | 1007.8 |
| 20260510004606 | 93 | 143 | 1.7 | 5.2 | 0.00 | 0.00 | 0.00 | 11 | 1007.8 |
| 20260510004516 | 93 | 46 | 1.7 | 5.2 | 0.00 | 0.00 | 0.00 | 11 | 1007.8 |
| 20260510004359 | 93 | 154 | 1.7 | 6.1 | 0.00 | 0.00 | 0.00 | 12 | 1007.8 |
| 20260510004258 | 93 | 130 | 1.7 | 6.1 | 0.00 | 0.00 | 0.00 | 12 | 1007.8 |
| 20260510004202 | 93 | 142 | 2.6 | 7.0 | 0.00 | 0.00 | 0.00 | 12 | 1007.7 |
| 20260510004058 | 93 | 140 | 2.6 | 7.0 | 0.00 | 0.00 | 0.00 | 12 | 1007.7 |
| 20260510003951 | 93 | 124 | 3.5 | 7.0 | 0.00 | 0.00 | 0.00 | 11 | 1007.7 |
| 20260510003844 | 93 | 184 | 3.5 | 7.0 | 0.00 | 0.00 | 0.00 | 11 | 1007.7 |
| 20260510003748 | 93 | 177 | 3.5 | 7.0 | 0.00 | 0.00 | 0.00 | 12 | 1007.7 |
| 20260510003636 | 93 | 110 | 3.5 | 7.0 | 0.00 | 0.00 | 0.00 | 11 | 1007.6 |
| 20260510003527 | 93 | 130 | 3.5 | 7.0 | 0.00 | 0.00 | 0.00 | 11 | 1007.6 |
| 20260510003420 | 93 | 185 | 3.5 | 7.0 | 0.00 | 0.00 | 0.00 | 11 | 1007.7 |
| 20260510003317 | 93 | 105 | 3.5 | 7.0 | 0.00 | 0.00 | 0.00 | 11 | 1007.7 |
| 20260510003214 | 93 | 74 | 3.5 | 7.0 | 0.00 | 0.00 | 0.00 | 11 | 1007.7 |
| 20260510003108 | 93 | 169 | 3.5 | 7.0 | 0.00 | 0.00 | 0.00 | 11 | 1007.7 |
| 20260510003011 | 94 | 138 | 3.5 | 9.6 | 0.00 | 0.00 | 0.00 | 11 | 1007.8 |
| 20260510002912 | 94 | 210 | 3.5 | 9.6 | 0.00 | 0.00 | 0.00 | 11 | 1007.8 |
| 20260510002808 | 94 | 206 | 3.5 | 9.6 | 0.00 | 0.00 | 0.00 | 10 | 1007.9 |
| 20260510002708 | 94 | 72 | 3.5 | 9.6 | 0.00 | 0.00 | 0.00 | 10 | 1008.1 |
| 20260510002607 | 94 | 178 | 4.3 | 9.6 | 0.00 | 0.00 | 0.00 | 10 | 1008.1 |
| 20260510002507 | 94 | 163 | 4.3 | 9.6 | 0.00 | 0.00 | 0.00 | 10 | 1008.0 |
| 20260510002403 | 94 | 96 | 4.3 | 9.6 | 0.00 | 0.00 | 0.00 | 10 | 1008.1 |
| 20260510002306 | 94 | 178 | 4.3 | 9.6 | 0.00 | 0.00 | 0.00 | 10 | 1008.0 |
| 20260510002200 | 94 | 164 | 4.3 | 9.6 | 0.00 | 0.00 | 0.00 | 10 | 1008.1 |
| 20260510002100 | 94 | 216 | 4.3 | 9.6 | 0.00 | 0.00 | 0.00 | 10 | 1008.1 |
| 20260510001955 | 94 | 72 | 4.3 | 8.7 | 0.00 | 0.00 | 0.00 | 10 | 1008.0 |
| 20260510001844 | 94 | 209 | 4.3 | 8.7 | 0.00 | 0.00 | 0.00 | 10 | 1008.0 |
| 20260510001742 | 94 | 212 | 4.3 | 8.7 | 0.00 | 0.00 | 0.00 | 10 | 1008.0 |
| 20260510001639 | 94 | 126 | 4.3 | 8.7 | 0.00 | 0.00 | 0.00 | 10 | 1008.1 |
| 20260510001532 | 94 | 188 | 4.3 | 8.7 | 0.00 | 0.00 | 0.00 | 10 | 1008.1 |
| 20260510001437 | 94 | 202 | 4.3 | 8.7 | 0.00 | 0.00 | 0.00 | 10 | 1008.1 |
| 20260510001333 | 94 | 132 | 4.3 | 8.7 | 0.00 | 0.00 | 0.00 | 10 | 1008.0 |
| 20260510001233 | 94 | 190 | 4.3 | 8.7 | 0.00 | 0.00 | 0.00 | 9 | 1008.1 |
| 20260510001135 | 94 | 200 | 4.3 | 9.6 | 0.00 | 0.00 | 0.00 | 9 | 1008.6 |
| 20260510001029 | 94 | 166 | 4.3 | 9.6 | 0.00 | 0.00 | 0.00 | 10 | 1008.7 |
| 20260510000926 | 94 | 151 | 4.3 | 9.6 | 0.00 | 0.00 | 0.00 | 10 | 1008.7 |
| 20260510000821 | 94 | 148 | 5.2 | 11.3 | 0.00 | 0.00 | 0.00 | 10 | 1008.7 |
| 20260510000713 | 94 | 211 | 5.2 | 11.3 | 0.00 | 0.00 | 0.00 | 10 | 1008.7 |
| 20260510000616 | 94 | 208 | 5.2 | 11.3 | 0.00 | 0.00 | 0.00 | 10 | 1008.7 |
| 20260510000515 | 94 | 179 | 5.2 | 11.3 | 0.00 | 0.00 | 0.00 | 9 | 1008.7 |
| 20260510000408 | 95 | 180 | 5.2 | 11.3 | 0.00 | 0.00 | 0.00 | 9 | 1008.7 |
| 20260510000312 | 95 | 196 | 5.2 | 11.3 | 0.00 | 0.00 | 0.00 | 9 | 1008.7 |
| 20260510000211 | 95 | 162 | 5.2 | 11.3 | 0.00 | 0.00 | 0.00 | 9 | 1008.7 |
| 20260510000117 | 95 | 215 | 5.2 | 11.3 | 0.00 | 0.00 | 0.00 | 9 | 1008.7 |
| 20260510000017 | 95 | 170 | 4.3 | 11.3 | 0.00 | 0.00 | 0.00 | 9 | 1008.7 |
| 20260509235905 | 95 | 155 | 4.3 | 10.4 | 0.00 | 0.00 | 0.00 | 9 | 1008.7 |
| 20260509235805 | 95 | 169 | 4.3 | 10.4 | 0.00 | 0.00 | 0.00 | 10 | 1008.8 |
| 20260509235711 | 95 | 182 | 4.3 | 10.4 | 0.00 | 0.00 | 0.00 | 10 | 1008.8 |
| 20260509235607 | 95 | 198 | 4.3 | 10.4 | 0.00 | 0.00 | 0.00 | 10 | 1008.8 |
| 20260509235508 | 95 | 171 | 4.3 | 8.7 | 0.00 | 0.00 | 0.00 | 10 | 1008.8 |
| 20260509235406 | 95 | 200 | 4.3 | 8.7 | 0.00 | 0.00 | 0.00 | 10 | 1008.8 |
| 20260509235307 | 95 | 205 | 5.2 | 12.2 | 0.00 | 0.00 | 0.00 | 9 | 1008.8 |
| 20260509235209 | 95 | 215 | 4.3 | 12.2 | 0.00 | 0.00 | 0.00 | 9 | 1008.8 |
| 20260509235059 | 94 | 187 | 4.3 | 12.2 | 0.00 | 0.00 | 0.00 | 10 | 1008.8 |
| 20260509234954 | 94 | 188 | 4.3 | 12.2 | 0.00 | 0.00 | 0.00 | 10 | 1008.8 |
| 20260509234840 | 94 | 236 | 4.3 | 12.2 | 0.00 | 0.00 | 0.00 | 9 | 1008.8 |
| 20260509234742 | 94 | 184 | 5.2 | 12.2 | 0.00 | 0.00 | 0.00 | 9 | 1008.8 |
| 20260509234639 | 95 | 214 | 5.2 | 12.2 | 0.00 | 0.00 | 0.00 | 9 | 1008.8 |
| 20260509234538 | 95 | 195 | 5.2 | 12.2 | 0.00 | 0.00 | 0.00 | 9 | 1008.8 |
| 20260509234434 | 95 | 166 | 5.2 | 12.2 | 0.00 | 0.00 | 0.00 | 9 | 1008.8 |
| 20260509234333 | 95 | 219 | 4.3 | 9.6 | 0.00 | 0.00 | 0.00 | 9 | 1008.8 |
| 20260509234232 | 95 | 173 | 4.3 | 9.6 | 0.00 | 0.00 | 0.00 | 9 | 1008.9 |
| 20260509234133 | 95 | 202 | 4.3 | 9.6 | 0.00 | 0.00 | 0.00 | 9 | 1008.9 |
| 20260509234030 | 95 | 84 | 4.3 | 9.6 | 0.00 | 0.00 | 0.00 | 9 | 1008.9 |
| 20260509233929 | 95 | 191 | 4.3 | 9.6 | 0.00 | 0.00 | 0.00 | 9 | 1008.9 |
| 20260509233828 | 95 | 133 | 4.3 | 9.6 | 0.00 | 0.00 | 0.00 | 9 | 1008.9 |
| 20260509233723 | 95 | 170 | 4.3 | 9.6 | 0.00 | 0.00 | 0.00 | 9 | 1008.9 |
| 20260509233625 | 95 | 155 | 4.3 | 8.7 | 0.00 | 0.00 | 0.00 | 9 | 1008.9 |
| 20260509233527 | 95 | 157 | 4.3 | 8.7 | 0.00 | 0.00 | 0.00 | 9 | 1008.9 |
| 20260509233421 | 95 | 109 | 4.3 | 8.7 | 0.00 | 0.00 | 0.00 | 10 | 1008.9 |
| 20260509233317 | 95 | 194 | 5.2 | 8.7 | 0.00 | 0.00 | 0.00 | 9 | 1008.9 |
| 20260509233208 | 95 | 198 | 5.2 | 9.6 | 0.00 | 0.00 | 0.00 | 9 | 1008.9 |
| 20260509233110 | 95 | 187 | 5.2 | 9.6 | 0.00 | 0.00 | 0.00 | 9 | 1008.9 |
| 20260509233013 | 95 | 126 | 5.2 | 9.6 | 0.00 | 0.00 | 0.00 | 9 | 1008.9 |
| 20260509232914 | 95 | 186 | 5.2 | 9.6 | 0.00 | 0.00 | 0.00 | 9 | 1008.9 |
| 20260509232814 | 95 | 227 | 4.3 | 9.6 | 0.00 | 0.00 | 0.00 | 9 | 1008.9 |
| 20260509232716 | 95 | 216 | 4.3 | 9.6 | 0.00 | 0.00 | 0.00 | 9 | 1009.2 |
| 20260509232613 | 95 | 176 | 4.3 | 9.6 | 0.00 | 0.00 | 0.00 | 9 | 1009.2 |
| 20260509232510 | 95 | 173 | 4.3 | 9.6 | 0.00 | 0.00 | 0.00 | 9 | 1009.2 |
| 20260509232413 | 95 | 185 | 4.3 | 9.6 | 0.00 | 0.00 | 0.00 | 9 | 1009.2 |
| 20260509232312 | 95 | 175 | 4.3 | 9.6 | 0.00 | 0.00 | 0.00 | 9 | 1009.2 |
| 20260509232212 | 95 | 190 | 4.3 | 9.6 | 0.00 | 0.00 | 0.00 | 9 | 1009.2 |
| 20260509232103 | 95 | 208 | 4.3 | 9.6 | 0.00 | 0.00 | 0.00 | 9 | 1009.2 |
| 20260509232001 | 95 | 174 | 4.3 | 9.6 | 0.00 | 0.00 | 0.00 | 10 | 1009.1 |
| 20260509231903 | 95 | 219 | 4.3 | 9.6 | 0.00 | 0.00 | 0.00 | 9 | 1009.1 |
| 20260509231756 | 95 | 236 | 4.3 | 9.6 | 0.00 | 0.00 | 0.00 | 9 | 1009.1 |
| 20260509231654 | 95 | 229 | 4.3 | 9.6 | 0.00 | 0.00 | 0.00 | 9 | 1009.2 |
| 20260509231556 | 95 | 229 | 3.5 | 7.8 | 0.00 | 0.00 | 0.00 | 9 | 1009.2 |
| 20260509231454 | 95 | 211 | 3.5 | 7.8 | 0.00 | 0.00 | 0.00 | 9 | 1009.2 |
| 20260509231351 | 95 | 221 | 3.5 | 7.8 | 0.00 | 0.00 | 0.00 | 9 | 1009.2 |
| 20260509231249 | 95 | 252 | 3.5 | 7.8 | 0.00 | 0.00 | 0.00 | 9 | 1009.2 |
| 20260509231151 | 95 | 163 | 3.5 | 7.8 | 0.00 | 0.00 | 0.00 | 9 | 1009.1 |
| 20260509231040 | 95 | 250 | 2.6 | 7.8 | 0.00 | 0.00 | 0.00 | 9 | 1009.1 |
| 20260509230945 | 95 | 182 | 2.6 | 6.1 | 0.00 | 0.00 | 0.00 | 9 | 1009.1 |
| 20260509230840 | 95 | 213 | 2.6 | 6.1 | 0.00 | 0.00 | 0.00 | 9 | 1009.1 |
| 20260509230740 | 96 | 126 | 2.6 | 6.1 | 0.00 | 0.00 | 0.00 | 9 | 1009.1 |
| 20260509230640 | 96 | 74 | 2.6 | 6.1 | 0.00 | 0.00 | 0.00 | 10 | 1009.2 |
| 20260509230537 | 96 | 82 | 2.6 | 7.0 | 0.00 | 0.00 | 0.00 | 9 | 1009.1 |
| 20260509230434 | 96 | 123 | 3.5 | 7.0 | 0.00 | 0.00 | 0.00 | 9 | 1009.1 |
| 20260509230332 | 95 | 196 | 3.5 | 7.0 | 0.00 | 0.00 | 0.00 | 9 | 1009.1 |
| 20260509230239 | 95 | 215 | 3.5 | 7.0 | 0.00 | 0.00 | 0.00 | 9 | 1009.1 |
| 20260509230124 | 95 | 254 | 4.3 | 10.4 | 0.00 | 0.00 | 0.00 | 9 | 1009.1 |
| 20260509230020 | 95 | 221 | 4.3 | 10.4 | 0.00 | 0.00 | 0.00 | 9 | 1009.1 |
| 20260509225932 | 95 | 213 | 5.2 | 10.4 | 0.00 | 0.00 | 0.00 | 9 | 1009.1 |
| 20260509225821 | 95 | 257 | 5.2 | 10.4 | 0.00 | 0.00 | 0.00 | 9 | 1009.0 |
| 20260509225722 | 95 | 269 | 5.2 | 10.4 | 0.00 | 0.00 | 0.00 | 9 | 1009.1 |
| 20260509225610 | 95 | 196 | 5.2 | 10.4 | 0.00 | 0.00 | 0.00 | 9 | 1009.1 |
| 20260509225507 | 95 | 223 | 5.2 | 10.4 | 0.00 | 0.00 | 0.00 | 9 | 1009.1 |
| 20260509225409 | 95 | 182 | 6.1 | 10.4 | 0.00 | 0.00 | 0.00 | 9 | 1009.1 |
| 20260509225311 | 95 | 225 | 6.1 | 10.4 | 0.00 | 0.00 | 0.00 | 9 | 1009.1 |
| 20260509225213 | 95 | 219 | 5.2 | 10.4 | 0.00 | 0.00 | 0.00 | 9 | 1009.2 |
| 20260509225104 | 95 | 248 | 5.2 | 10.4 | 0.00 | 0.00 | 0.00 | 9 | 1009.2 |
| 20260509225003 | 96 | 212 | 5.2 | 10.4 | 0.00 | 0.00 | 0.00 | 9 | 1009.2 |
| 20260509224902 | 96 | 190 | 5.2 | 9.6 | 0.00 | 0.00 | 0.00 | 9 | 1009.2 |
| 20260509224812 | 95 | 215 | 5.2 | 10.4 | 0.00 | 0.00 | 0.00 | 9 | 1009.2 |
| 20260509224646 | 95 | 190 | 5.2 | 10.4 | 0.00 | 0.00 | 0.00 | 9 | 1009.2 |
| 20260509224546 | 95 | 199 | 5.2 | 10.4 | 0.00 | 0.00 | 0.00 | 9 | 1009.2 |
| 20260509224446 | 95 | 225 | 5.2 | 10.4 | 0.00 | 0.00 | 0.00 | 9 | 1009.2 |
| 20260509224345 | 95 | 205 | 5.2 | 10.4 | 0.00 | 0.00 | 0.00 | 10 | 1009.1 |
| 20260509224244 | 95 | 242 | 5.2 | 10.4 | 0.00 | 0.00 | 0.00 | 9 | 1009.1 |
| 20260509224149 | 95 | 261 | 5.2 | 10.4 | 0.00 | 0.00 | 0.00 | 9 | 1009.2 |
| 20260509224040 | 95 | 290 | 5.2 | 10.4 | 0.00 | 0.00 | 0.00 | 9 | 1009.2 |
| 20260509223944 | 96 | 244 | 5.2 | 10.4 | 0.00 | 0.00 | 0.00 | 9 | 1009.2 |
| 20260509223841 | 96 | 170 | 4.3 | 10.4 | 0.00 | 0.00 | 0.00 | 9 | 1009.2 |
| 20260509223735 | 96 | 128 | 4.3 | 8.7 | 0.00 | 0.00 | 0.00 | 9 | 1009.3 |
| 20260509223639 | 96 | 219 | 4.3 | 8.7 | 0.00 | 0.00 | 0.00 | 9 | 1009.3 |
| 20260509223533 | 96 | 234 | 4.3 | 8.7 | 0.00 | 0.00 | 0.00 | 9 | 1009.3 |
| 20260509223435 | 96 | 242 | 4.3 | 8.7 | 0.00 | 0.00 | 0.00 | 9 | 1009.3 |
| 20260509223326 | 96 | 136 | 3.5 | 7.8 | 0.00 | 0.00 | 0.00 | 9 | 1009.3 |
| 20260509223228 | 96 | 221 | 3.5 | 7.8 | 0.00 | 0.00 | 0.00 | 10 | 1009.5 |
| 20260509223126 | 96 | 252 | 3.5 | 7.8 | 0.00 | 0.00 | 0.00 | 10 | 1009.3 |
| 20260509223025 | 96 | 239 | 3.5 | 7.8 | 0.00 | 0.00 | 0.00 | 9 | 1009.3 |
| 20260509222921 | 96 | 242 | 2.6 | 7.8 | 0.00 | 0.00 | 0.00 | 9 | 1009.5 |
| 20260509222817 | 96 | 286 | 2.6 | 7.8 | 0.00 | 0.00 | 0.00 | 9 | 1009.5 |
| 20260509222719 | 96 | 197 | 2.6 | 6.1 | 0.00 | 0.00 | 0.00 | 9 | 1009.6 |
| 20260509222611 | 96 | 171 | 3.5 | 11.3 | 0.00 | 0.00 | 0.00 | 9 | 1009.6 |
| 20260509222509 | 96 | 221 | 3.5 | 11.3 | 0.00 | 0.00 | 0.00 | 9 | 1009.6 |
| 20260509222414 | 96 | 169 | 3.5 | 11.3 | 0.00 | 0.00 | 0.00 | 9 | 1009.6 |
| 20260509222346 | 96 | 203 | 2.6 | 11.3 | 0.00 | 0.00 | 0.00 | 9 | 1009.6 |
| 20260509222313 | 96 | 203 | 2.6 | 11.3 | 0.00 | 0.00 | 0.00 | 9 | 1009.6 |
| 20260509222209 | 96 | 229 | 2.6 | 11.3 | 0.00 | 0.00 | 0.00 | 10 | 1009.7 |
| 20260509222105 | 96 | 261 | 2.6 | 11.3 | 0.00 | 0.00 | 0.00 | 10 | 1009.7 |
| 20260509222011 | 96 | 218 | 3.5 | 11.3 | 0.00 | 0.00 | 0.00 | 9 | 1009.6 |
| 20260509221909 | 96 | 211 | 3.5 | 11.3 | 0.00 | 0.00 | 0.00 | 9 | 1009.6 |
| 20260509221804 | 96 | 55 | 3.5 | 11.3 | 0.00 | 0.00 | 0.00 | 9 | 1009.5 |
| 20260509221705 | 96 | 145 | 3.5 | 11.3 | 0.00 | 0.00 | 0.00 | 9 | 1009.6 |
| 20260509221554 | 96 | 194 | 3.5 | 9.6 | 0.00 | 0.00 | 0.00 | 10 | 1009.6 |
| 20260509221457 | 96 | 279 | 3.5 | 9.6 | 0.00 | 0.00 | 0.00 | 10 | 1009.6 |
| 20260509221419 | 96 | 294 | 3.5 | 9.6 | 0.00 | 0.00 | 0.00 | 9 | 1009.6 |
| 20260509221239 | 96 | 266 | 3.5 | 9.6 | 0.00 | 0.00 | 0.00 | 9 | 1009.6 |
| 20260509221136 | 96 | 248 | 3.5 | 9.6 | 0.00 | 0.00 | 0.00 | 9 | 1009.6 |
| 20260509221038 | 96 | 275 | 3.5 | 9.6 | 0.00 | 0.00 | 0.00 | 10 | 1009.6 |
| 20260509220939 | 96 | 257 | 3.5 | 9.6 | 0.00 | 0.00 | 0.00 | 10 | 1009.6 |
| 20260509220837 | 96 | 258 | 3.5 | 9.6 | 0.00 | 0.00 | 0.00 | 10 | 1009.6 |
| 20260509220730 | 96 | 284 | 3.5 | 7.8 | 0.00 | 0.00 | 0.00 | 10 | 1009.6 |
| 20260509220635 | 96 | 283 | 3.5 | 7.8 | 0.00 | 0.00 | 0.00 | 10 | 1009.6 |
| 20260509220534 | 96 | 216 | 3.5 | 7.8 | 0.00 | 0.00 | 0.00 | 10 | 1009.5 |
| 20260509220427 | 95 | 178 | 3.5 | 7.8 | 0.00 | 0.00 | 0.00 | 11 | 1009.5 |
| 20260509220329 | 95 | 242 | 4.3 | 9.6 | 0.00 | 0.00 | 0.00 | 11 | 1009.5 |
| 20260509220220 | 95 | 173 | 4.3 | 11.3 | 0.00 | 0.00 | 0.00 | 10 | 1009.3 |
| 20260509220130 | 95 | 246 | 5.2 | 11.3 | 0.00 | 0.00 | 0.00 | 10 | 1009.3 |
| 20260509220027 | 95 | 143 | 6.1 | 11.3 | 0.00 | 0.00 | 0.00 | 10 | 1009.3 |
| 20260509215922 | 95 | 132 | 5.2 | 11.3 | 0.00 | 0.00 | 0.00 | 10 | 1009.3 |
| 20260509215826 | 94 | 192 | 5.2 | 11.3 | 0.00 | 0.00 | 0.00 | 10 | 1009.2 |
| 20260509215717 | 94 | 104 | 5.2 | 11.3 | 0.00 | 0.00 | 0.00 | 10 | 1009.3 |
| 20260509215618 | 94 | 168 | 5.2 | 11.3 | 0.00 | 0.00 | 0.00 | 10 | 1009.3 |
| 20260509215509 | 94 | 132 | 5.2 | 11.3 | 0.00 | 0.00 | 0.00 | 10 | 1009.3 |
| 20260509215415 | 94 | 105 | 5.2 | 11.3 | 0.00 | 0.00 | 0.00 | 10 | 1009.3 |
| 20260509215314 | 94 | 107 | 4.3 | 11.3 | 0.00 | 0.00 | 0.00 | 10 | 1009.2 |
| 20260509215214 | 94 | 146 | 4.3 | 11.3 | 0.00 | 0.00 | 0.00 | 10 | 1009.3 |
| 20260509215108 | 94 | 72 | 4.3 | 7.8 | 0.00 | 0.00 | 0.00 | 10 | 1009.3 |
| 20260509215015 | 94 | 144 | 4.3 | 7.8 | 0.00 | 0.00 | 0.00 | 11 | 1009.3 |
| 20260509214913 | 94 | 131 | 3.5 | 7.8 | 0.00 | 0.00 | 0.00 | 11 | 1009.3 |
| 20260509214810 | 94 | 106 | 3.5 | 7.8 | 0.00 | 0.00 | 0.00 | 11 | 1009.2 |
| 20260509214719 | 94 | 83 | 3.5 | 7.8 | 0.00 | 0.00 | 0.00 | 11 | 1009.3 |
| 20260509214607 | 94 | 86 | 3.5 | 7.8 | 0.00 | 0.00 | 0.00 | 11 | 1009.3 |
| 20260509214512 | 94 | 103 | 4.3 | 7.8 | 0.00 | 0.00 | 0.00 | 10 | 1009.3 |
| 20260509214412 | 94 | 77 | 4.3 | 7.8 | 0.00 | 0.00 | 0.00 | 10 | 1009.3 |
| 20260509214309 | 94 | 89 | 3.5 | 7.8 | 0.00 | 0.00 | 0.00 | 10 | 1009.3 |
| 20260509214206 | 94 | 97 | 3.5 | 7.8 | 0.00 | 0.00 | 0.00 | 11 | 1009.2 |
| 20260509214111 | 94 | 98 | 2.6 | 7.0 | 0.00 | 0.00 | 0.00 | 11 | 1009.2 |
| 20260509214003 | 94 | 149 | 2.6 | 7.0 | 0.00 | 0.00 | 0.00 | 11 | 1009.2 |
| 20260509213900 | 94 | 113 | 2.6 | 7.0 | 0.00 | 0.00 | 0.00 | 11 | 1009.2 |
| 20260509213750 | 94 | 118 | 1.7 | 7.0 | 0.00 | 0.00 | 0.00 | 10 | 1009.2 |
| 20260509213655 | 95 | 101 | 1.7 | 7.0 | 0.00 | 0.00 | 0.00 | 10 | 1009.3 |
| 20260509213552 | 95 | 119 | 1.7 | 7.0 | 0.00 | 0.00 | 0.00 | 10 | 1009.3 |
| 20260509213453 | 95 | 115 | 0.9 | 5.2 | 0.00 | 0.00 | 0.00 | 10 | 1009.3 |
| 20260509213359 | 95 | 134 | 0.9 | 5.2 | 0.00 | 0.00 | 0.00 | 10 | 1009.3 |
| 20260509213242 | 95 | 200 | 0.9 | 6.1 | 0.00 | 0.00 | 0.00 | 11 | 1009.3 |
| 20260509213147 | 95 | 82 | 0.9 | 8.7 | 0.00 | 0.00 | 0.00 | 11 | 1009.5 |
| 20260509213041 | 96 | 84 | 1.7 | 8.7 | 0.00 | 0.00 | 0.00 | 10 | 1009.5 |
| 20260509212940 | 96 | 124 | 2.6 | 9.6 | 0.00 | 0.00 | 0.00 | 10 | 1009.5 |
| 20260509212837 | 96 | 122 | 2.6 | 9.6 | 0.00 | 0.00 | 0.00 | 11 | 1009.5 |
| 20260509212740 | 96 | 142 | 2.6 | 9.6 | 0.00 | 0.00 | 0.00 | 11 | 1009.5 |
| 20260509212637 | 96 | 109 | 2.6 | 9.6 | 0.00 | 0.00 | 0.00 | 11 | 1010.3 |
| 20260509212538 | 96 | 113 | 2.6 | 9.6 | 0.00 | 0.00 | 0.00 | 10 | 1010.3 |
| 20260509212440 | 95 | 200 | 3.5 | 9.6 | 0.00 | 0.00 | 0.00 | 10 | 1010.3 |
| 20260509212341 | 95 | 168 | 3.5 | 9.6 | 0.00 | 0.00 | 0.00 | 10 | 1010.3 |
| 20260509212238 | 95 | 185 | 3.5 | 9.6 | 0.00 | 0.00 | 0.00 | 10 | 1010.3 |
| 20260509212131 | 95 | 192 | 2.6 | 9.6 | 0.00 | 0.00 | 0.00 | 10 | 1010.3 |
| 20260509212026 | 95 | 153 | 2.6 | 9.6 | 0.00 | 0.00 | 0.00 | 10 | 1010.2 |
| 20260509211934 | 95 | 171 | 2.6 | 6.1 | 0.00 | 0.00 | 0.00 | 10 | 1010.2 |
| 20260509211829 | 95 | 156 | 2.6 | 6.1 | 0.00 | 0.00 | 0.00 | 10 | 1010.2 |
| 20260509211728 | 94 | 109 | 2.6 | 6.1 | 0.00 | 0.00 | 0.00 | 10 | 1010.1 |
| 20260509211632 | 94 | 118 | 2.6 | 6.1 | 0.00 | 0.00 | 0.00 | 11 | 1010.1 |
| 20260509211521 | 94 | 192 | 1.7 | 6.1 | 0.00 | 0.00 | 0.00 | 10 | 1010.0 |
| 20260509211425 | 94 | 121 | 1.7 | 6.1 | 0.00 | 0.00 | 0.00 | 11 | 1010.0 |
| 20260509211322 | 94 | 107 | 2.6 | 6.1 | 0.00 | 0.00 | 0.00 | 11 | 1010.0 |
| 20260509211222 | 93 | 192 | 2.6 | 6.1 | 0.00 | 0.00 | 0.00 | 11 | 1009.9 |
| 20260509211124 | 93 | 94 | 2.6 | 7.0 | 0.00 | 0.00 | 0.00 | 11 | 1009.9 |
| 20260509211020 | 93 | 122 | 2.6 | 7.0 | 0.00 | 0.00 | 0.00 | 11 | 1009.9 |
| 20260509210914 | 93 | 78 | 2.6 | 7.0 | 0.00 | 0.00 | 0.00 | 11 | 1009.9 |
| 20260509210811 | 93 | 69 | 2.6 | 7.0 | 0.00 | 0.00 | 0.00 | 11 | 1009.9 |
| 20260509210706 | 93 | 59 | 2.6 | 7.0 | 0.00 | 0.00 | 0.00 | 11 | 1009.9 |
| 20260509210608 | 93 | 11 | 2.6 | 7.0 | 0.00 | 0.00 | 0.00 | 11 | 1009.9 |
| 20260509210457 | 93 | 28 | 3.5 | 7.0 | 0.00 | 0.00 | 0.00 | 11 | 1009.9 |
| 20260509210349 | 94 | 65 | 3.5 | 7.0 | 0.00 | 0.00 | 0.00 | 11 | 1010.0 |
| 20260509210250 | 94 | 92 | 3.5 | 7.0 | 0.00 | 0.00 | 0.00 | 11 | 1010.0 |
| 20260509210149 | 94 | 51 | 2.6 | 7.0 | 0.00 | 0.00 | 0.00 | 12 | 1010.0 |
| 20260509210047 | 94 | 74 | 2.6 | 7.0 | 0.00 | 0.00 | 0.00 | 12 | 1010.1 |
| 20260509205953 | 94 | 61 | 2.6 | 7.8 | 0.00 | 0.00 | 0.00 | 11 | 1010.1 |
| 20260509205841 | 94 | 60 | 2.6 | 7.8 | 0.00 | 0.00 | 0.00 | 11 | 1010.1 |
| 20260509205753 | 94 | 205 | 3.5 | 7.8 | 0.00 | 0.00 | 0.00 | 10 | 1010.1 |
| 20260509205638 | 94 | 202 | 3.5 | 7.8 | 0.00 | 0.00 | 0.00 | 10 | 1010.2 |
| 20260509205538 | 94 | 191 | 3.5 | 7.8 | 0.00 | 0.00 | 0.00 | 11 | 1010.2 |
| 20260509205438 | 94 | 105 | 3.5 | 7.8 | 0.00 | 0.00 | 0.00 | 11 | 1010.2 |
| 20260509205341 | 94 | 98 | 3.5 | 7.8 | 0.00 | 0.00 | 0.00 | 11 | 1010.2 |
| 20260509205236 | 94 | 100 | 3.5 | 7.8 | 0.00 | 0.00 | 0.00 | 10 | 1010.2 |
| 20260509205141 | 94 | 132 | 4.3 | 7.8 | 0.00 | 0.00 | 0.00 | 10 | 1010.2 |
| 20260509205037 | 94 | 98 | 4.3 | 7.8 | 0.00 | 0.00 | 0.00 | 12 | 1010.2 |
| 20260509204943 | 94 | 211 | 4.3 | 7.0 | 0.00 | 0.00 | 0.00 | 12 | 1010.2 |
| 20260509204835 | 94 | 73 | 3.5 | 7.0 | 0.00 | 0.00 | 0.00 | 12 | 1010.2 |
| 20260509204730 | 94 | 71 | 3.5 | 7.0 | 0.00 | 0.00 | 0.00 | 12 | 1010.2 |
| 20260509204636 | 94 | 117 | 2.6 | 7.0 | 0.00 | 0.00 | 0.00 | 12 | 1010.3 |
| 20260509204527 | 94 | 135 | 2.6 | 7.0 | 0.00 | 0.00 | 0.00 | 11 | 1010.3 |
| 20260509204429 | 95 | 77 | 2.6 | 7.0 | 0.00 | 0.00 | 0.00 | 11 | 1010.3 |
| 20260509204332 | 94 | 120 | 1.7 | 6.1 | 0.00 | 0.00 | 0.00 | 12 | 1010.3 |
| 20260509204223 | 94 | 164 | 1.7 | 6.1 | 0.00 | 0.00 | 0.00 | 11 | 1010.6 |
| 20260509204110 | 94 | 211 | 0.9 | 6.1 | 0.00 | 0.00 | 0.00 | 11 | 1010.6 |
| 20260509204014 | 94 | 204 | 0.9 | 4.3 | 0.00 | 0.00 | 0.00 | 12 | 1010.5 |
| 20260509203912 | 93 | 166 | 0.9 | 4.3 | 0.00 | 0.00 | 0.00 | 13 | 1010.5 |
| 20260509203814 | 93 | 76 | 0.9 | 4.3 | 0.00 | 0.00 | 0.00 | 12 | 1010.3 |
| 20260509203717 | 93 | 71 | 1.7 | 5.2 | 0.00 | 0.00 | 0.00 | 12 | 1010.3 |
| 20260509203608 | 93 | 300 | 1.7 | 5.2 | 0.00 | 0.00 | 0.00 | 12 | 1010.3 |
| 20260509203509 | 92 | 289 | 1.7 | 5.2 | 0.00 | 0.00 | 0.00 | 11 | 1010.2 |
| 20260509203409 | 92 | 275 | 1.7 | 5.2 | 0.00 | 0.00 | 0.00 | 11 | 1010.2 |
| 20260509203321 | 92 | 279 | 2.6 | 7.0 | 0.00 | 0.00 | 0.00 | 11 | 1010.2 |
| 20260509203158 | 93 | 284 | 2.6 | 7.0 | 0.00 | 0.00 | 0.00 | 11 | 1010.3 |
| 20260509203057 | 93 | 337 | 2.6 | 7.0 | 0.00 | 0.00 | 0.00 | 12 | 1010.3 |
| 20260509202958 | 93 | 74 | 2.6 | 7.0 | 0.00 | 0.00 | 0.00 | 12 | 1010.5 |
| 20260509202855 | 94 | 74 | 3.5 | 7.8 | 0.00 | 0.00 | 0.00 | 12 | 1010.5 |
| 20260509202759 | 94 | 117 | 2.6 | 7.8 | 0.00 | 0.00 | 0.00 | 12 | 1010.6 |
| 20260509202645 | 94 | 120 | 2.6 | 7.8 | 0.00 | 0.00 | 0.00 | 12 | 1010.9 |
| 20260509202540 | 94 | 154 | 2.6 | 7.8 | 0.00 | 0.00 | 0.00 | 12 | 1010.9 |
| 20260509202442 | 93 | 216 | 2.6 | 7.8 | 0.00 | 0.00 | 0.00 | 12 | 1010.8 |
| 20260509202337 | 93 | 186 | 2.6 | 7.8 | 0.00 | 0.00 | 0.00 | 12 | 1010.8 |
| 20260509202246 | 93 | 99 | 2.6 | 7.8 | 0.00 | 0.00 | 0.00 | 12 | 1010.7 |
| 20260509202137 | 93 | 103 | 2.6 | 7.8 | 0.00 | 0.00 | 0.00 | 12 | 1010.7 |
| 20260509202038 | 93 | 105 | 2.6 | 7.8 | 0.00 | 0.00 | 0.00 | 12 | 1010.7 |
| 20260509201937 | 93 | 184 | 2.6 | 7.8 | 0.00 | 0.00 | 0.00 | 13 | 1010.7 |
| 20260509201842 | 92 | 121 | 2.6 | 7.0 | 0.00 | 0.00 | 0.00 | 13 | 1010.7 |
| 20260509201735 | 92 | 87 | 2.6 | 7.0 | 0.00 | 0.00 | 0.00 | 13 | 1010.7 |
| 20260509201629 | 92 | 68 | 2.6 | 7.0 | 0.00 | 0.00 | 0.00 | 14 | 1010.7 |
| 20260509201525 | 92 | 205 | 2.6 | 7.0 | 0.00 | 0.00 | 0.00 | 12 | 1010.6 |
| 20260509201416 | 92 | 195 | 2.6 | 7.0 | 0.00 | 0.00 | 0.00 | 13 | 1010.6 |
| 20260509201321 | 92 | 143 | 2.6 | 7.0 | 0.00 | 0.00 | 0.00 | 13 | 1010.6 |
| 20260509201219 | 92 | 117 | 2.6 | 7.0 | 0.00 | 0.00 | 0.00 | 13 | 1010.7 |
| 20260509201120 | 92 | 91 | 2.6 | 7.0 | 0.00 | 0.00 | 0.00 | 13 | 1010.7 |
| 20260509201017 | 92 | 283 | 3.5 | 7.0 | 0.00 | 0.00 | 0.00 | 12 | 1010.7 |
| 20260509200918 | 92 | 287 | 3.5 | 7.0 | 0.00 | 0.00 | 0.00 | 13 | 1010.7 |
| 20260509200802 | 92 | 69 | 3.5 | 7.0 | 0.00 | 0.00 | 0.00 | 13 | 1010.8 |
| 20260509200717 | 92 | 55 | 3.5 | 7.0 | 0.00 | 0.00 | 0.00 | 13 | 1010.8 |
| 20260509200610 | 92 | 74 | 3.5 | 7.0 | 0.00 | 0.00 | 0.00 | 13 | 1010.8 |
| 20260509200515 | 92 | 89 | 3.5 | 6.1 | 0.00 | 0.00 | 0.00 | 13 | 1010.8 |
| 20260509200408 | 92 | 117 | 3.5 | 6.1 | 0.00 | 0.00 | 0.00 | 13 | 1010.8 |
| 20260509200309 | 92 | 66 | 3.5 | 6.1 | 0.00 | 0.00 | 0.00 | 13 | 1010.8 |
| 20260509200210 | 92 | 145 | 3.5 | 6.1 | 0.00 | 0.00 | 0.00 | 13 | 1010.8 |
| 20260509200106 | 92 | 107 | 3.5 | 6.1 | 0.00 | 0.00 | 0.00 | 13 | 1010.8 |
| 20260509200005 | 92 | 205 | 3.5 | 6.1 | 0.00 | 0.00 | 0.00 | 12 | 1010.8 |
| 20260509195905 | 92 | 103 | 3.5 | 6.1 | 0.00 | 0.00 | 0.00 | 12 | 1010.8 |
| 20260509195810 | 92 | 66 | 3.5 | 6.1 | 0.00 | 0.00 | 0.00 | 12 | 1010.8 |
| 20260509195651 | 92 | 197 | 3.5 | 6.1 | 0.00 | 0.00 | 0.00 | 12 | 1011.2 |
| 20260509195553 | 92 | 87 | 3.5 | 6.1 | 0.00 | 0.00 | 0.00 | 12 | 1011.2 |
| 20260509195449 | 92 | 105 | 3.5 | 6.1 | 0.00 | 0.00 | 0.00 | 13 | 1011.1 |
| 20260509195353 | 91 | 105 | 3.5 | 6.1 | 0.00 | 0.00 | 0.00 | 12 | 1011.1 |
| 20260509195247 | 91 | 138 | 3.5 | 7.0 | 0.00 | 0.00 | 0.00 | 12 | 1011.1 |
| 20260509195141 | 91 | 130 | 3.5 | 7.0 | 0.00 | 0.00 | 0.00 | 12 | 1011.1 |
| 20260509195038 | 91 | 89 | 4.3 | 7.8 | 0.00 | 0.00 | 0.00 | 12 | 1011.0 |
| 20260509194938 | 91 | 90 | 3.5 | 7.8 | 0.00 | 0.00 | 0.00 | 12 | 1011.0 |
| 20260509194833 | 91 | 78 | 3.5 | 7.8 | 0.00 | 0.00 | 0.00 | 12 | 1011.0 |
| 20260509194732 | 91 | 55 | 3.5 | 7.8 | 0.00 | 0.00 | 0.00 | 12 | 1011.0 |
| 20260509194636 | 91 | 115 | 3.5 | 7.8 | 0.00 | 0.00 | 0.00 | 13 | 1011.0 |
| 20260509194531 | 90 | 143 | 4.3 | 7.8 | 0.00 | 0.00 | 0.00 | 13 | 1010.9 |
| 20260509194430 | 90 | 157 | 4.3 | 7.8 | 0.00 | 0.00 | 0.00 | 13 | 1010.9 |
| 20260509194325 | 90 | 82 | 3.5 | 7.8 | 0.00 | 0.00 | 0.00 | 13 | 1010.9 |
| 20260509194219 | 90 | 88 | 3.5 | 7.8 | 0.00 | 0.00 | 0.00 | 13 | 1010.6 |
| 20260509194117 | 90 | 74 | 3.5 | 7.8 | 0.00 | 0.00 | 0.00 | 13 | 1010.6 |
| 20260509194011 | 90 | 128 | 3.5 | 7.8 | 0.00 | 0.00 | 0.00 | 13 | 1010.5 |
| 20260509193912 | 90 | 88 | 3.5 | 7.8 | 0.00 | 0.00 | 0.00 | 14 | 1010.6 |
| 20260509193802 | 90 | 56 | 3.5 | 7.8 | 0.00 | 0.00 | 0.00 | 14 | 1010.6 |
| 20260509193707 | 91 | 94 | 3.5 | 7.8 | 0.00 | 0.00 | 0.00 | 14 | 1010.6 |
| 20260509193600 | 91 | 78 | 3.5 | 7.0 | 0.00 | 0.00 | 0.00 | 14 | 1010.7 |
| 20260509193502 | 91 | 74 | 3.5 | 7.0 | 0.00 | 0.00 | 0.00 | 14 | 1010.6 |
| 20260509193408 | 91 | 80 | 3.5 | 7.0 | 0.00 | 0.00 | 0.00 | 13 | 1010.7 |
| 20260509193256 | 91 | 102 | 3.5 | 7.0 | 0.00 | 0.00 | 0.00 | 13 | 1010.7 |
| 20260509193156 | 91 | 136 | 3.5 | 7.0 | 0.00 | 0.00 | 0.00 | 14 | 1010.7 |
| 20260509193052 | 92 | 78 | 3.5 | 7.0 | 0.00 | 0.00 | 0.00 | 13 | 1010.8 |
| 20260509192953 | 92 | 90 | 3.5 | 8.7 | 0.00 | 0.00 | 0.00 | 13 | 1010.9 |
| 20260509192855 | 93 | 86 | 2.6 | 8.7 | 0.00 | 0.00 | 0.00 | 13 | 1011.0 |
| 20260509192747 | 93 | 193 | 2.6 | 8.7 | 0.00 | 0.00 | 0.00 | 14 | 1011.0 |
| 20260509192643 | 93 | 134 | 2.6 | 8.7 | 0.00 | 0.00 | 0.00 | 14 | 1011.3 |
| 20260509192545 | 93 | 188 | 2.6 | 8.7 | 0.00 | 0.00 | 0.00 | 15 | 1011.3 |
| 20260509192438 | 92 | 205 | 2.6 | 8.7 | 0.00 | 0.00 | 0.00 | 14 | 1011.2 |
| 20260509192341 | 92 | 215 | 2.6 | 8.7 | 0.00 | 0.00 | 0.00 | 15 | 1011.3 |
| 20260509192238 | 92 | 203 | 2.6 | 8.7 | 0.00 | 0.00 | 0.00 | 15 | 1011.3 |
| 20260509192136 | 92 | 136 | 2.6 | 8.7 | 0.00 | 0.00 | 0.00 | 16 | 1011.2 |
| 20260509192041 | 92 | 110 | 2.6 | 8.7 | 0.00 | 0.00 | 0.00 | 16 | 1011.2 |
| 20260509191939 | 92 | 186 | 2.6 | 6.1 | 0.00 | 0.00 | 0.00 | 15 | 1011.1 |
| 20260509191842 | 91 | 108 | 1.7 | 6.1 | 0.00 | 0.00 | 0.00 | 16 | 1011.1 |
| 20260509191736 | 91 | 183 | 2.6 | 6.1 | 0.00 | 0.00 | 0.00 | 16 | 1011.0 |
| 20260509191638 | 91 | 94 | 2.6 | 7.8 | 0.00 | 0.00 | 0.00 | 16 | 1011.0 |
| 20260509191538 | 91 | 113 | 2.6 | 7.8 | 0.00 | 0.00 | 0.00 | 16 | 1011.0 |
| 20260509191432 | 91 | 145 | 1.7 | 7.8 | 0.00 | 0.00 | 0.00 | 16 | 1011.0 |
| 20260509191331 | 91 | 150 | 1.7 | 7.8 | 0.00 | 0.00 | 0.00 | 18 | 1011.0 |
| 20260509191232 | 91 | 94 | 1.7 | 7.8 | 0.00 | 0.00 | 0.00 | 18 | 1011.1 |
| 20260509191134 | 91 | 89 | 1.7 | 7.8 | 0.00 | 0.00 | 0.00 | 18 | 1011.1 |
| 20260509191035 | 91 | 62 | 1.7 | 7.8 | 0.00 | 0.00 | 0.00 | 16 | 1011.0 |
| 20260509190932 | 91 | 113 | 1.7 | 7.8 | 0.00 | 0.00 | 0.00 | 16 | 1011.1 |
| 20260509190825 | 91 | 115 | 1.7 | 7.8 | 0.00 | 0.00 | 0.00 | 16 | 1011.1 |
| 20260509190728 | 92 | 105 | 1.7 | 7.8 | 0.00 | 0.00 | 0.00 | 17 | 1011.2 |
| 20260509190627 | 92 | 82 | 0.9 | 6.1 | 0.00 | 0.00 | 0.00 | 17 | 1011.2 |
| 20260509190517 | 91 | 164 | 0.9 | 6.1 | 0.00 | 0.00 | 0.00 | 17 | 1011.2 |
| 20260509190416 | 91 | 211 | 1.7 | 6.1 | 0.00 | 0.00 | 0.00 | 16 | 1011.1 |
| 20260509190310 | 91 | 211 | 1.7 | 6.1 | 0.00 | 0.00 | 0.00 | 16 | 1011.0 |
| 20260509190158 | 91 | 194 | 1.7 | 7.0 | 0.00 | 0.00 | 0.00 | 17 | 1011.0 |
| 20260509190055 | 91 | 76 | 1.7 | 7.0 | 0.00 | 0.00 | 0.00 | 16 | 1011.0 |
| 20260509185943 | 91 | 77 | 1.7 | 7.0 | 0.00 | 0.00 | 0.00 | 16 | 1011.0 |
| 20260509185846 | 91 | 80 | 1.7 | 7.0 | 0.00 | 0.00 | 0.00 | 17 | 1011.0 |
| 20260509185737 | 90 | 209 | 1.7 | 7.0 | 0.00 | 0.00 | 0.00 | 17 | 1011.0 |
| 20260509185640 | 90 | 211 | 1.7 | 7.0 | 0.00 | 0.00 | 0.00 | 17 | 1011.1 |
| 20260509185540 | 90 | 209 | 1.7 | 7.0 | 0.00 | 0.00 | 0.00 | 17 | 1011.1 |
| 20260509185439 | 90 | 214 | 1.7 | 7.0 | 0.00 | 0.00 | 0.00 | 17 | 1011.1 |
| 20260509185351 | 90 | 115 | 1.7 | 7.0 | 0.00 | 0.00 | 0.00 | 17 | 1011.1 |
| 20260509185240 | 90 | 140 | 1.7 | 7.0 | 0.00 | 0.00 | 0.00 | 18 | 1011.1 |
| 20260509185138 | 90 | 93 | 1.7 | 6.1 | 0.00 | 0.00 | 0.00 | 18 | 1011.1 |
| 20260509185040 | 90 | 148 | 1.7 | 6.1 | 0.00 | 0.00 | 0.00 | 17 | 1011.1 |
| 20260509184941 | 90 | 162 | 1.7 | 6.1 | 0.00 | 0.00 | 0.00 | 17 | 1011.1 |
| 20260509184837 | 90 | 116 | 1.7 | 6.1 | 0.00 | 0.00 | 0.00 | 17 | 1011.1 |
| 20260509184740 | 90 | 188 | 1.7 | 6.1 | 0.00 | 0.00 | 0.00 | 17 | 1011.1 |
| 20260509184631 | 90 | 192 | 1.7 | 6.1 | 0.00 | 0.00 | 0.00 | 18 | 1011.1 |
| 20260509184532 | 90 | 98 | 1.7 | 6.1 | 0.00 | 0.00 | 0.00 | 18 | 1011.1 |
| 20260509184428 | 90 | 198 | 1.7 | 6.1 | 0.00 | 0.00 | 0.00 | 17 | 1011.0 |
| 20260509184321 | 89 | 221 | 2.6 | 6.1 | 0.00 | 0.00 | 0.00 | 19 | 1011.0 |
| 20260509184225 | 89 | 167 | 2.6 | 6.1 | 0.00 | 0.00 | 0.00 | 19 | 1011.4 |
| 20260509184120 | 89 | 191 | 2.6 | 6.1 | 0.00 | 0.00 | 0.00 | 19 | 1011.3 |
| 20260509184010 | 89 | 132 | 1.7 | 6.1 | 0.00 | 0.00 | 0.00 | 20 | 1011.3 |
| 20260509183913 | 89 | 75 | 1.7 | 6.1 | 0.00 | 0.00 | 0.00 | 19 | 1011.3 |
| 20260509183810 | 89 | 109 | 2.6 | 6.1 | 0.00 | 0.00 | 0.00 | 18 | 1011.3 |
| 20260509183714 | 89 | 63 | 1.7 | 6.1 | 0.00 | 0.00 | 0.00 | 18 | 1011.4 |
| 20260509183606 | 89 | 76 | 1.7 | 6.1 | 0.00 | 0.00 | 0.00 | 18 | 1011.4 |
| 20260509183506 | 89 | 174 | 1.7 | 6.1 | 0.00 | 0.00 | 0.00 | 18 | 1011.4 |
| 20260509183410 | 89 | 178 | 2.6 | 7.0 | 0.00 | 0.00 | 0.00 | 19 | 1011.4 |
| 20260509183302 | 89 | 166 | 1.7 | 7.0 | 0.00 | 0.00 | 0.00 | 19 | 1011.3 |
| 20260509183202 | 89 | 130 | 1.7 | 7.0 | 0.00 | 0.00 | 0.00 | 21 | 1011.3 |
| 20260509183100 | 88 | 89 | 2.6 | 7.0 | 0.00 | 0.00 | 0.00 | 21 | 1011.2 |
| 20260509182955 | 88 | 140 | 2.6 | 7.0 | 0.00 | 0.00 | 0.00 | 20 | 1011.2 |
| 20260509182858 | 88 | 121 | 2.6 | 7.0 | 0.00 | 0.00 | 0.00 | 19 | 1011.1 |
| 20260509182751 | 88 | 92 | 2.6 | 7.0 | 0.00 | 0.00 | 0.00 | 19 | 1011.1 |
| 20260509182648 | 88 | 141 | 2.6 | 7.0 | 0.00 | 0.00 | 0.00 | 19 | 1011.1 |
| 20260509182551 | 88 | 84 | 2.6 | 7.0 | 0.00 | 0.00 | 0.00 | 20 | 1011.1 |
| 20260509182449 | 88 | 100 | 2.6 | 7.0 | 0.00 | 0.00 | 0.00 | 19 | 1011.2 |
| 20260509182348 | 88 | 92 | 1.7 | 7.0 | 0.00 | 0.00 | 0.00 | 19 | 1011.2 |
| 20260509182242 | 88 | 114 | 1.7 | 7.0 | 0.00 | 0.00 | 0.00 | 20 | 1011.2 |
| 20260509182145 | 88 | 78 | 1.7 | 7.0 | 0.00 | 0.00 | 0.00 | 20 | 1011.2 |
| 20260509182042 | 89 | 100 | 1.7 | 7.0 | 0.00 | 0.00 | 0.00 | 19 | 1011.3 |
| 20260509181944 | 89 | 121 | 1.7 | 7.0 | 0.00 | 0.00 | 0.00 | 19 | 1011.3 |
| 20260509181836 | 89 | 165 | 1.7 | 7.0 | 0.00 | 0.00 | 0.00 | 20 | 1011.3 |
| 20260509181745 | 89 | 74 | 1.7 | 7.0 | 0.00 | 0.00 | 0.00 | 20 | 1011.3 |
| 20260509181634 | 89 | 108 | 1.7 | 7.0 | 0.00 | 0.00 | 0.00 | 20 | 1011.3 |
| 20260509181529 | 89 | 130 | 1.7 | 7.0 | 0.00 | 0.00 | 0.00 | 19 | 1011.3 |
| 20260509181427 | 88 | 145 | 2.6 | 7.0 | 0.00 | 0.00 | 0.00 | 19 | 1011.3 |
| 20260509181324 | 89 | 136 | 1.7 | 7.8 | 0.00 | 0.00 | 0.00 | 19 | 1011.3 |
| 20260509181212 | 89 | 105 | 2.6 | 7.8 | 0.00 | 0.00 | 0.00 | 19 | 1011.8 |
| 20260509181111 | 89 | 202 | 1.7 | 7.8 | 0.00 | 0.00 | 0.00 | 19 | 1011.7 |
| 20260509181016 | 89 | 122 | 1.7 | 7.8 | 0.00 | 0.00 | 0.00 | 20 | 1011.7 |
| 20260509180902 | 88 | 237 | 1.7 | 7.8 | 0.00 | 0.00 | 0.00 | 20 | 1011.7 |
| 20260509180759 | 88 | 187 | 1.7 | 7.8 | 0.00 | 0.00 | 0.00 | 19 | 1011.7 |
| 20260509180655 | 88 | 216 | 1.7 | 7.8 | 0.00 | 0.00 | 0.00 | 19 | 1011.7 |
| 20260509180557 | 89 | 84 | 1.7 | 7.8 | 0.00 | 0.00 | 0.00 | 19 | 1011.7 |
| 20260509180448 | 89 | 124 | 1.7 | 7.8 | 0.00 | 0.00 | 0.00 | 20 | 1011.7 |
| 20260509180346 | 88 | 213 | 0.9 | 7.8 | 0.00 | 0.00 | 0.00 | 20 | 1011.7 |
| 20260509180250 | 88 | 130 | 0.9 | 7.0 | 0.00 | 0.00 | 0.00 | 20 | 1011.7 |
| 20260509180142 | 88 | 84 | 0.9 | 7.0 | 0.00 | 0.00 | 0.00 | 20 | 1011.6 |
| 20260509180039 | 88 | 120 | 1.7 | 7.0 | 0.00 | 0.00 | 0.00 | 20 | 1011.6 |
| 20260509175939 | 87 | 196 | 1.7 | 7.0 | 0.00 | 0.00 | 0.00 | 20 | 1011.4 |
| 20260509175838 | 87 | 203 | 2.6 | 7.8 | 0.00 | 0.00 | 0.00 | 21 | 1011.4 |
| 20260509175739 | 87 | 110 | 2.6 | 7.8 | 0.00 | 0.00 | 0.00 | 22 | 1011.4 |
| 20260509175635 | 87 | 207 | 2.6 | 7.8 | 0.00 | 0.00 | 0.00 | 21 | 1011.6 |
| 20260509175524 | 87 | 124 | 2.6 | 7.8 | 0.00 | 0.00 | 0.00 | 21 | 1011.6 |
| 20260509175417 | 86 | 129 | 2.6 | 7.8 | 0.00 | 0.00 | 0.00 | 21 | 1011.6 |
| 20260509175314 | 86 | 59 | 2.6 | 7.8 | 0.00 | 0.00 | 0.00 | 22 | 1011.6 |
| 20260509175209 | 86 | 77 | 2.6 | 7.8 | 0.00 | 0.00 | 0.00 | 22 | 1011.6 |
| 20260509175119 | 86 | 171 | 2.6 | 7.8 | 0.00 | 0.00 | 0.00 | 21 | 1011.4 |
| 20260509175015 | 86 | 97 | 2.6 | 7.8 | 0.00 | 0.00 | 0.00 | 21 | 1011.6 |
| 20260509174909 | 86 | 137 | 2.6 | 7.0 | 0.00 | 0.00 | 0.00 | 22 | 1011.6 |
| 20260509174815 | 86 | 200 | 2.6 | 7.0 | 0.00 | 0.00 | 0.00 | 22 | 1011.4 |
| 20260509174707 | 86 | 204 | 2.6 | 7.0 | 0.00 | 0.00 | 0.00 | 22 | 1011.4 |
| 20260509174559 | 86 | 114 | 2.6 | 7.0 | 0.00 | 0.00 | 0.00 | 22 | 1011.4 |
| 20260509174501 | 86 | 109 | 1.7 | 7.0 | 0.00 | 0.00 | 0.00 | 22 | 1011.4 |
| 20260509174355 | 86 | 217 | 1.7 | 7.0 | 0.00 | 0.00 | 0.00 | 23 | 1011.4 |
| 20260509174247 | 85 | 207 | 2.6 | 7.0 | 0.00 | 0.00 | 0.00 | 22 | 1011.3 |
| 20260509174146 | 86 | 192 | 1.7 | 7.0 | 0.00 | 0.00 | 0.00 | 22 | 1011.7 |
| 20260509174047 | 86 | 108 | 1.7 | 7.0 | 0.00 | 0.00 | 0.00 | 22 | 1011.7 |
| 20260509173943 | 86 | 118 | 1.7 | 7.0 | 0.00 | 0.00 | 0.00 | 22 | 1011.7 |
| 20260509173845 | 85 | 53 | 1.7 | 7.0 | 0.00 | 0.00 | 0.00 | 22 | 1011.7 |
| 20260509173740 | 85 | 309 | 1.7 | 7.0 | 0.00 | 0.00 | 0.00 | 23 | 1011.7 |
| 20260509173640 | 85 | 157 | 1.7 | 7.0 | 0.00 | 0.00 | 0.00 | 23 | 1011.6 |
| 20260509173543 | 85 | 111 | 1.7 | 7.0 | 0.00 | 0.00 | 0.00 | 23 | 1011.6 |
| 20260509173441 | 85 | 163 | 1.7 | 7.0 | 0.00 | 0.00 | 0.00 | 22 | 1011.6 |
| 20260509173333 | 85 | 58 | 1.7 | 7.0 | 0.00 | 0.00 | 0.00 | 22 | 1011.6 |
| 20260509173234 | 85 | 111 | 1.7 | 7.0 | 0.00 | 0.00 | 0.00 | 23 | 1011.6 |
| 20260509173133 | 85 | 186 | 2.6 | 7.0 | 0.00 | 0.00 | 0.00 | 24 | 1011.6 |
| 20260509173104 | 85 | 186 | 1.7 | 7.0 | 0.00 | 0.00 | 0.00 | 24 | 1011.6 |
| 20260509172929 | 85 | 221 | 1.7 | 7.0 | 0.00 | 0.00 | 0.00 | 24 | 1011.6 |
| 20260509172820 | 85 | 190 | 2.6 | 6.1 | 0.00 | 0.00 | 0.00 | 24 | 1011.4 |
| 20260509172716 | 84 | 126 | 2.6 | 7.0 | 0.00 | 0.00 | 0.00 | 24 | 1011.9 |
| 20260509172611 | 84 | 140 | 2.6 | 7.0 | 0.00 | 0.00 | 0.00 | 23 | 1011.8 |
| 20260509172509 | 84 | 113 | 2.6 | 7.0 | 0.00 | 0.00 | 0.00 | 23 | 1011.7 |
| 20260509172410 | 84 | 107 | 2.6 | 7.0 | 0.00 | 0.00 | 0.00 | 23 | 1011.7 |
| 20260509172311 | 84 | 128 | 3.5 | 7.0 | 0.00 | 0.00 | 0.00 | 23 | 1011.7 |
| 20260509172214 | 84 | 72 | 3.5 | 7.0 | 0.00 | 0.00 | 0.00 | 24 | 1011.8 |
| 20260509172108 | 84 | 71 | 3.5 | 7.0 | 0.00 | 0.00 | 0.00 | 23 | 1011.7 |
| 20260509172014 | 84 | 193 | 3.5 | 7.0 | 0.00 | 0.00 | 0.00 | 23 | 1011.7 |
| 20260509171911 | 83 | 170 | 3.5 | 7.0 | 0.00 | 0.00 | 0.00 | 23 | 1011.6 |
| 20260509171748 | 83 | 209 | 3.5 | 7.0 | 0.00 | 0.00 | 0.00 | 23 | 1011.6 |
| 20260509171650 | 83 | 186 | 3.5 | 7.0 | 0.00 | 0.00 | 0.00 | 23 | 1011.4 |
| 20260509171547 | 82 | 44 | 3.5 | 7.0 | 0.00 | 0.00 | 0.00 | 23 | 1011.4 |
| 20260509171440 | 82 | 157 | 3.5 | 7.0 | 0.00 | 0.00 | 0.00 | 24 | 1011.3 |
| 20260509171342 | 82 | 96 | 3.5 | 7.0 | 0.00 | 0.00 | 0.00 | 24 | 1011.4 |
| 20260509171241 | 83 | 67 | 3.5 | 7.0 | 0.00 | 0.00 | 0.00 | 24 | 1011.4 |
| 20260509171140 | 82 | 125 | 3.5 | 7.0 | 0.00 | 0.00 | 0.00 | 24 | 1011.4 |
| 20260509171042 | 82 | 128 | 3.5 | 7.0 | 0.00 | 0.00 | 0.00 | 24 | 1011.4 |
| 20260509170936 | 83 | 92 | 3.5 | 7.0 | 0.00 | 0.00 | 0.00 | 24 | 1011.4 |
| 20260509170826 | 83 | 112 | 3.5 | 8.7 | 0.00 | 0.00 | 0.00 | 24 | 1011.4 |
| 20260509170733 | 83 | 125 | 2.6 | 8.7 | 0.00 | 0.00 | 0.00 | 23 | 1011.4 |
| 20260509170624 | 83 | 161 | 2.6 | 8.7 | 0.00 | 0.00 | 0.00 | 24 | 1011.4 |
| 20260509170518 | 83 | 198 | 2.6 | 8.7 | 0.00 | 0.00 | 0.00 | 24 | 1011.4 |
| 20260509170426 | 82 | 146 | 2.6 | 8.7 | 0.00 | 0.00 | 0.00 | 24 | 1011.4 |
| 20260509170316 | 82 | 122 | 2.6 | 8.7 | 0.00 | 0.00 | 0.00 | 25 | 1011.3 |
| 20260509170219 | 82 | 158 | 2.6 | 8.7 | 0.00 | 0.00 | 0.00 | 25 | 1011.3 |
| 20260509170112 | 82 | 93 | 2.6 | 8.7 | 0.00 | 0.00 | 0.00 | 24 | 1011.3 |
| 20260509170013 | 82 | 138 | 2.6 | 8.7 | 0.00 | 0.00 | 0.00 | 23 | 1011.3 |
| 20260509165909 | 82 | 128 | 2.6 | 8.7 | 0.00 | 0.00 | 0.00 | 24 | 1011.3 |
| 20260509165810 | 82 | 76 | 1.7 | 7.8 | 0.00 | 0.00 | 0.00 | 24 | 1011.3 |
| 20260509165707 | 82 | 210 | 2.6 | 7.8 | 0.00 | 0.00 | 0.00 | 25 | 1011.4 |
| 20260509165606 | 82 | 265 | 2.6 | 7.8 | 0.00 | 0.00 | 0.00 | 25 | 1011.4 |
| 20260509165503 | 81 | 123 | 2.6 | 7.8 | 0.00 | 0.00 | 0.00 | 25 | 1011.3 |
| 20260509165402 | 81 | 159 | 3.5 | 7.8 | 0.00 | 0.00 | 0.00 | 24 | 1011.3 |
| 20260509165306 | 81 | 145 | 3.5 | 7.8 | 0.00 | 0.00 | 0.00 | 25 | 1011.3 |
| 20260509165201 | 81 | 211 | 3.5 | 7.8 | 0.00 | 0.00 | 0.00 | 24 | 1011.3 |
| 20260509165103 | 82 | 117 | 3.5 | 7.8 | 0.00 | 0.00 | 0.00 | 23 | 1011.4 |
| 20260509165006 | 82 | 132 | 2.6 | 7.8 | 0.00 | 0.00 | 0.00 | 26 | 1011.6 |
| 20260509164902 | 82 | 117 | 2.6 | 7.8 | 0.00 | 0.00 | 0.00 | 26 | 1011.6 |
| 20260509164800 | 82 | 102 | 2.6 | 7.8 | 0.00 | 0.00 | 0.00 | 25 | 1011.6 |
| 20260509164701 | 82 | 193 | 2.6 | 7.8 | 0.00 | 0.00 | 0.00 | 24 | 1011.6 |
| 20260509164553 | 82 | 121 | 2.6 | 7.8 | 0.00 | 0.00 | 0.00 | 24 | 1011.6 |
| 20260509164448 | 82 | 188 | 2.6 | 7.8 | 0.00 | 0.00 | 0.00 | 24 | 1011.6 |
| 20260509164345 | 82 | 200 | 2.6 | 7.8 | 0.00 | 0.00 | 0.00 | 25 | 1011.6 |
| 20260509164243 | 82 | 234 | 2.6 | 7.8 | 0.00 | 0.00 | 0.00 | 25 | 1011.4 |
| 20260509164146 | 82 | 155 | 2.6 | 8.7 | 0.00 | 0.00 | 0.00 | 27 | 1011.8 |
| 20260509164041 | 81 | 101 | 2.6 | 8.7 | 0.00 | 0.00 | 0.00 | 27 | 1011.7 |
| 20260509163936 | 81 | 107 | 2.6 | 8.7 | 0.00 | 0.00 | 0.00 | 27 | 1011.7 |
| 20260509163833 | 81 | 208 | 2.6 | 8.7 | 0.00 | 0.00 | 0.00 | 27 | 1011.6 |
| 20260509163733 | 81 | 57 | 2.6 | 8.7 | 0.00 | 0.00 | 0.00 | 26 | 1011.6 |
| 20260509163643 | 80 | 71 | 3.5 | 8.7 | 0.00 | 0.00 | 0.00 | 26 | 1011.4 |
| 20260509163530 | 80 | 159 | 3.5 | 8.7 | 0.00 | 0.00 | 0.00 | 26 | 1011.4 |
| 20260509163430 | 80 | 180 | 2.6 | 8.7 | 0.00 | 0.00 | 0.00 | 27 | 1011.4 |
| 20260509163332 | 80 | 198 | 2.6 | 8.7 | 0.00 | 0.00 | 0.00 | 27 | 1011.4 |
| 20260509163227 | 80 | 117 | 2.6 | 8.7 | 0.00 | 0.00 | 0.00 | 27 | 1011.3 |
| 20260509163128 | 80 | 150 | 1.7 | 7.0 | 0.00 | 0.00 | 0.00 | 28 | 1011.3 |
| 20260509163023 | 80 | 79 | 1.7 | 7.0 | 0.00 | 0.00 | 0.00 | 28 | 1011.3 |
| 20260509162816 | 80 | 128 | 2.6 | 7.0 | 0.00 | 0.00 | 0.00 | 27 | 1011.3 |
| 20260509162734 | 80 | 92 | 1.7 | 8.7 | 0.00 | 0.00 | 0.00 | 27 | 1011.6 |
| 20260509162722 | 80 | 167 | 2.6 | 8.7 | 0.00 | 0.00 | 0.00 | 27 | 1011.6 |
| 20260509162518 | 80 | 136 | 2.6 | 8.7 | 0.00 | 0.00 | 0.00 | 28 | 1011.6 |
| 20260509162417 | 79 | 194 | 2.6 | 8.7 | 0.00 | 0.00 | 0.00 | 28 | 1011.4 |
| 20260509162315 | 79 | 109 | 2.6 | 8.7 | 0.00 | 0.00 | 0.00 | 28 | 1011.4 |
| 20260509162216 | 79 | 170 | 2.6 | 8.7 | 0.00 | 0.00 | 0.00 | 28 | 1011.4 |
| 20260509162112 | 79 | 225 | 2.6 | 8.7 | 0.00 | 0.00 | 0.00 | 28 | 1011.3 |
| 20260509162003 | 79 | 150 | 2.6 | 8.7 | 0.00 | 0.00 | 0.00 | 29 | 1011.3 |
| 20260509161906 | 78 | 83 | 3.5 | 8.7 | 0.00 | 0.00 | 0.00 | 29 | 1011.2 |
| 20260509161803 | 78 | 106 | 3.5 | 8.7 | 0.00 | 0.00 | 0.00 | 29 | 1011.2 |
| 20260509161706 | 78 | 92 | 3.5 | 7.8 | 0.00 | 0.00 | 0.00 | 28 | 1011.2 |
| 20260509161610 | 78 | 90 | 3.5 | 7.8 | 0.00 | 0.00 | 0.00 | 27 | 1011.1 |
| 20260509161457 | 78 | 132 | 3.5 | 7.8 | 0.00 | 0.00 | 0.00 | 27 | 1011.1 |
| 20260509161347 | 78 | 134 | 3.5 | 7.8 | 0.00 | 0.00 | 0.00 | 28 | 1011.1 |
| 20260509161251 | 78 | 132 | 2.6 | 7.8 | 0.00 | 0.00 | 0.00 | 29 | 1011.2 |
| 20260509161137 | 78 | 92 | 2.6 | 7.8 | 0.00 | 0.00 | 0.00 | 29 | 1010.9 |
| 20260509161036 | 78 | 118 | 2.6 | 7.8 | 0.00 | 0.00 | 0.00 | 29 | 1010.9 |
| 20260509160944 | 78 | 106 | 1.7 | 7.8 | 0.00 | 0.00 | 0.00 | 28 | 1011.0 |
| 20260509160835 | 79 | 129 | 1.7 | 7.8 | 0.00 | 0.00 | 0.00 | 28 | 1011.0 |
| 20260509160739 | 79 | 90 | 1.7 | 6.1 | 0.00 | 0.00 | 0.00 | 28 | 1011.0 |
| 20260509160647 | 78 | 153 | 1.7 | 6.1 | 0.00 | 0.00 | 0.00 | 30 | 1011.0 |
| 20260509160537 | 78 | 264 | 1.7 | 7.8 | 0.00 | 0.00 | 0.00 | 30 | 1011.0 |
| 20260509160429 | 78 | 184 | 2.6 | 7.8 | 0.00 | 0.00 | 0.00 | 30 | 1010.9 |
| 20260509160323 | 78 | 218 | 2.6 | 7.8 | 0.00 | 0.00 | 0.00 | 30 | 1010.8 |
| 20260509160217 | 78 | 218 | 2.6 | 7.8 | 0.00 | 0.00 | 0.00 | 30 | 1010.8 |
| 20260509160117 | 78 | 197 | 3.5 | 7.8 | 0.00 | 0.00 | 0.00 | 30 | 1010.8 |
| 20260509160017 | 77 | 201 | 3.5 | 7.8 | 0.00 | 0.00 | 0.00 | 31 | 1010.8 |
| 20260509155910 | 77 | 119 | 3.5 | 7.8 | 0.00 | 0.00 | 0.00 | 30 | 1010.7 |
| 20260509155815 | 77 | 174 | 3.5 | 7.8 | 0.00 | 0.00 | 0.00 | 31 | 1010.7 |
| 20260509155704 | 77 | 211 | 3.5 | 7.8 | 0.00 | 0.00 | 0.00 | 31 | 1010.9 |
| 20260509155558 | 77 | 201 | 2.6 | 7.8 | 0.00 | 0.00 | 0.00 | 31 | 1010.9 |
| 20260509155502 | 77 | 102 | 2.6 | 7.0 | 0.00 | 0.00 | 0.00 | 31 | 1010.9 |
| 20260509155418 | 77 | 75 | 2.6 | 7.0 | 0.00 | 0.00 | 0.00 | 31 | 1010.9 |
| 20260509155306 | 77 | 177 | 2.6 | 7.0 | 0.00 | 0.00 | 0.00 | 32 | 1010.9 |
| 20260509155155 | 76 | 157 | 2.6 | 7.0 | 0.00 | 0.00 | 0.00 | 31 | 1010.9 |
| 20260509155049 | 76 | 167 | 1.7 | 7.0 | 0.00 | 0.00 | 0.00 | 31 | 1010.9 |
| 20260509154944 | 76 | 213 | 1.7 | 7.0 | 0.00 | 0.00 | 0.00 | 32 | 1010.8 |
| 20260509154843 | 76 | 98 | 1.7 | 6.1 | 0.00 | 0.00 | 0.00 | 33 | 1010.9 |